Wetterdaten: Freitag, 12.07.2019
Datum Zeit Temp. Aussen Temp. o. S. +5cm Feuchte Auss Luftdruck Regen Sonnenschein Regendauer Solar Windben Empfang
12.07.2019 00:00 18,6 C 16,1 C 15,6 C 76 % 1012,2 hPa 0,0 l/m 0 min 0 min 0 W/m 0,0 km/h (0 Bft) 97,87 %
12.07.2019 00:02 18,6 C 16,1 C 15,6 C 76 % 1012,1 hPa 0,0 l/m 0 min 0 min 0 W/m 0,0 km/h (0 Bft) 95,56 %
12.07.2019 00:04 18,5 C 16,1 C 15,6 C 76 % 1012,2 hPa 0,0 l/m 0 min 0 min 0 W/m 0,0 km/h (0 Bft) 97,87 %
12.07.2019 00:08 18,4 C 16,1 C 15,0 C 76 % 1012,1 hPa 0,0 l/m 0 min 0 min 0 W/m 0,0 km/h (0 Bft) 96,81 %
12.07.2019 00:10 18,3 C 16,1 C 15,0 C 76 % 1012,2 hPa 0,0 l/m 0 min 0 min 0 W/m 0,0 km/h (0 Bft) 97,83 %
12.07.2019 00:12 18,3 C 16,1 C 15,0 C 76 % 1012,2 hPa 0,0 l/m 0 min 0 min 0 W/m 0,0 km/h (0 Bft) 97,87 %
12.07.2019 00:14 18,3 C 16,1 C 15,0 C 77 % 1012,1 hPa 0,0 l/m 0 min 0 min 0 W/m 0,0 km/h (0 Bft) 97,87 %
12.07.2019 00:16 18,2 C 16,1 C 15,0 C 77 % 1012,1 hPa 0,0 l/m 0 min 0 min 0 W/m 0,0 km/h (0 Bft) 97,87 %
12.07.2019 00:18 18,2 C 16,7 C 15,0 C 77 % 1012,2 hPa 0,0 l/m 0 min 0 min 0 W/m 0,0 km/h (0 Bft) 97,87 %
12.07.2019 00:20 18,1 C 16,1 C 15,0 C 76 % 1012,1 hPa 0,0 l/m 0 min 0 min 0 W/m 0,0 km/h (0 Bft) 97,87 %
12.07.2019 00:22 18,1 C 16,1 C 15,0 C 77 % 1012,2 hPa 0,0 l/m 0 min 0 min 0 W/m 0,0 km/h (0 Bft) 100,00 %
12.07.2019 00:24 18,1 C 16,1 C 15,0 C 77 % 1012,1 hPa 0,0 l/m 0 min 0 min 0 W/m 0,0 km/h (0 Bft) 100,00 %
12.07.2019 00:26 18,0 C 16,1 C 15,0 C 77 % 1012,0 hPa 0,0 l/m 0 min 0 min 0 W/m 0,0 km/h (0 Bft) 100,00 %
12.07.2019 00:28 17,9 C 16,1 C 15,0 C 77 % 1012,1 hPa 0,0 l/m 0 min 0 min 0 W/m 0,0 km/h (0 Bft) 100,00 %
12.07.2019 00:30 17,9 C 16,1 C 15,0 C 77 % 1012,0 hPa 0,0 l/m 0 min 0 min 0 W/m 0,0 km/h (0 Bft) 100,00 %
12.07.2019 00:32 17,9 C 16,1 C 15,0 C 77 % 1012,0 hPa 0,0 l/m 0 min 0 min 0 W/m 0,0 km/h (0 Bft) 100,00 %
12.07.2019 00:34 17,8 C 16,1 C 14,4 C 77 % 1012,0 hPa 0,0 l/m 0 min 0 min 0 W/m 0,0 km/h (0 Bft) 100,00 %
12.07.2019 00:36 17,8 C 16,1 C 14,4 C 77 % 1012,0 hPa 0,0 l/m 0 min 0 min 0 W/m 0,0 km/h (0 Bft) 95,74 %
12.07.2019 00:38 17,8 C 15,6 C 14,4 C 77 % 1012,1 hPa 0,0 l/m 0 min 0 min 0 W/m 0,0 km/h (0 Bft) 100,00 %
12.07.2019 00:40 17,7 C 15,6 C 14,4 C 77 % 1012,0 hPa 0,0 l/m 0 min 0 min 0 W/m 0,0 km/h (0 Bft) 100,00 %
12.07.2019 00:42 17,7 C 15,6 C 14,4 C 78 % 1012,0 hPa 0,0 l/m 0 min 0 min 0 W/m 0,0 km/h (0 Bft) 97,87 %
12.07.2019 00:44 17,7 C 15,6 C 14,4 C 78 % 1012,0 hPa 0,0 l/m 0 min 0 min 0 W/m 0,0 km/h (0 Bft) 97,87 %
12.07.2019 00:46 17,6 C 15,6 C 14,4 C 78 % 1012,0 hPa 0,0 l/m 0 min 0 min 0 W/m 0,0 km/h (0 Bft) 97,83 %
12.07.2019 00:48 17,6 C 15,6 C 14,4 C 78 % 1012,0 hPa 0,0 l/m 0 min 0 min 0 W/m 0,0 km/h (0 Bft) 97,87 %
12.07.2019 00:50 17,5 C 15,0 C 14,4 C 78 % 1012,0 hPa 0,0 l/m 0 min 0 min 0 W/m 0,0 km/h (0 Bft) 97,87 %
12.07.2019 00:52 17,5 C 15,0 C 14,4 C 78 % 1011,9 hPa 0,0 l/m 0 min 0 min 0 W/m 0,0 km/h (0 Bft) 97,87 %
12.07.2019 00:54 17,4 C 15,0 C 14,4 C 79 % 1012,0 hPa 0,0 l/m 0 min 0 min 0 W/m 0,0 km/h (0 Bft) 95,74 %
12.07.2019 00:56 17,4 C 15,0 C 14,4 C 79 % 1011,9 hPa 0,0 l/m 0 min 0 min 0 W/m 0,0 km/h (0 Bft) 95,65 %
12.07.2019 00:58 17,3 C 15,0 C 14,4 C 79 % 1011,9 hPa 0,0 l/m 0 min 0 min 0 W/m 0,0 km/h (0 Bft) 95,74 %
12.07.2019 01:00 17,3 C 15,0 C 14,4 C 79 % 1012,0 hPa 0,0 l/m 0 min 0 min 0 W/m 0,0 km/h (0 Bft) 95,74 %
12.07.2019 01:02 17,2 C 15,0 C 13,9 C 79 % 1012,0 hPa 0,0 l/m 0 min 0 min 0 W/m 0,0 km/h (0 Bft) 95,74 %
12.07.2019 01:04 17,2 C 15,0 C 13,9 C 79 % 1011,9 hPa 0,0 l/m 0 min 0 min 0 W/m 0,0 km/h (0 Bft) 93,62 %
12.07.2019 01:06 17,2 C 15,0 C 13,9 C 79 % 1011,9 hPa 0,0 l/m 0 min 0 min 0 W/m 0,0 km/h (0 Bft) 93,62 %
12.07.2019 01:08 17,1 C 15,0 C 13,9 C 80 % 1011,9 hPa 0,0 l/m 0 min 0 min 0 W/m 0,0 km/h (0 Bft) 95,65 %
12.07.2019 01:10 17,1 C 15,0 C 13,9 C 80 % 1011,9 hPa 0,0 l/m 0 min 0 min 0 W/m 0,0 km/h (0 Bft) 95,74 %
12.07.2019 01:12 17,0 C 14,4 C 13,9 C 80 % 1011,9 hPa 0,0 l/m 0 min 0 min 0 W/m 0,0 km/h (0 Bft) 95,74 %
12.07.2019 01:14 17,0 C 14,4 C 13,9 C 80 % 1011,9 hPa 0,0 l/m 0 min 0 min 0 W/m 0,0 km/h (0 Bft) 95,74 %
12.07.2019 01:16 16,9 C 14,4 C 13,9 C 80 % 1011,9 hPa 0,0 l/m 0 min 0 min 0 W/m 0,0 km/h (0 Bft) 93,62 %
12.07.2019 01:18 16,9 C 14,4 C 13,9 C 80 % 1012,0 hPa 0,0 l/m 0 min 0 min 0 W/m 0,0 km/h (0 Bft) 95,74 %
12.07.2019 01:20 16,9 C 15,0 C 13,9 C 80 % 1012,0 hPa 0,0 l/m 0 min 0 min 0 W/m 0,0 km/h (0 Bft) 95,65 %
12.07.2019 01:22 16,8 C 15,0 C 13,9 C 80 % 1012,0 hPa 0,0 l/m 0 min 0 min 0 W/m 0,0 km/h (0 Bft) 93,62 %
12.07.2019 01:24 16,8 C 15,0 C 13,9 C 80 % 1011,9 hPa 0,0 l/m 0 min 0 min 0 W/m 0,0 km/h (0 Bft) 93,62 %
12.07.2019 01:26 16,7 C 15,0 C 13,9 C 80 % 1011,9 hPa 0,0 l/m 0 min 0 min 0 W/m 0,0 km/h (0 Bft) 97,87 %
12.07.2019 01:28 16,7 C 15,0 C 13,9 C 80 % 1011,9 hPa 0,0 l/m 0 min 0 min 0 W/m 0,0 km/h (0 Bft) 95,74 %
12.07.2019 01:30 16,7 C 15,0 C 13,9 C 81 % 1011,9 hPa 0,0 l/m 0 min 0 min 0 W/m 0,0 km/h (0 Bft) 97,87 %
12.07.2019 01:32 16,7 C 15,0 C 14,4 C 81 % 1011,9 hPa 0,0 l/m 0 min 0 min 0 W/m 0,0 km/h (0 Bft) 97,83 %
12.07.2019 01:34 16,6 C 15,0 C 14,4 C 81 % 1012,0 hPa 0,0 l/m 0 min 0 min 0 W/m 3,2 km/h (1 Bft) 97,87 %
12.07.2019 01:36 16,6 C 15,6 C 14,4 C 81 % 1012,0 hPa 0,0 l/m 0 min 0 min 0 W/m 0,0 km/h (0 Bft) 97,87 %
12.07.2019 01:38 16,6 C 15,6 C 14,4 C 81 % 1011,9 hPa 0,0 l/m 0 min 0 min 0 W/m 0,0 km/h (0 Bft) 95,74 %
12.07.2019 01:40 16,6 C 15,6 C 14,4 C 81 % 1011,9 hPa 0,0 l/m 0 min 0 min 0 W/m 0,0 km/h (0 Bft) 97,87 %
12.07.2019 01:42 16,5 C 15,6 C 14,4 C 81 % 1011,9 hPa 0,0 l/m 0 min 0 min 0 W/m 0,0 km/h (0 Bft) 97,87 %
12.07.2019 01:44 16,5 C 15,6 C 14,4 C 82 % 1012,0 hPa 0,0 l/m 0 min 0 min 0 W/m 0,0 km/h (0 Bft) 97,83 %
12.07.2019 01:46 16,5 C 15,6 C 14,4 C 82 % 1012,0 hPa 0,0 l/m 0 min 0 min 0 W/m 0,0 km/h (0 Bft) 97,87 %
12.07.2019 01:48 16,5 C 15,6 C 14,4 C 82 % 1012,0 hPa 0,0 l/m 0 min 0 min 0 W/m 0,0 km/h (0 Bft) 97,87 %
12.07.2019 01:50 16,4 C 16,1 C 15,0 C 82 % 1012,0 hPa 0,0 l/m 0 min 0 min 0 W/m 0,0 km/h (0 Bft) 97,87 %
12.07.2019 01:52 16,4 C 16,1 C 15,0 C 82 % 1011,9 hPa 0,0 l/m 0 min 0 min 0 W/m 0,0 km/h (0 Bft) 95,74 %
12.07.2019 01:54 16,4 C 16,1 C 15,0 C 83 % 1011,9 hPa 0,0 l/m 0 min 0 min 0 W/m 3,2 km/h (1 Bft) 97,87 %
12.07.2019 01:56 16,4 C 16,1 C 15,0 C 83 % 1011,9 hPa 0,0 l/m 0 min 0 min 0 W/m 0,0 km/h (0 Bft) 95,65 %
12.07.2019 01:58 16,4 C 16,1 C 15,0 C 83 % 1011,9 hPa 0,0 l/m 0 min 0 min 0 W/m 0,0 km/h (0 Bft) 95,74 %
12.07.2019 02:00 16,4 C 16,1 C 15,0 C 83 % 1011,9 hPa 0,0 l/m 0 min 0 min 0 W/m 0,0 km/h (0 Bft) 97,87 %
12.07.2019 02:02 16,4 C 16,1 C 15,0 C 83 % 1011,9 hPa 0,0 l/m 0 min 0 min 0 W/m 3,2 km/h (1 Bft) 97,87 %
12.07.2019 02:04 16,4 C 16,1 C 15,0 C 83 % 1011,8 hPa 0,0 l/m 0 min 0 min 0 W/m 3,2 km/h (1 Bft) 100,00 %
12.07.2019 02:06 16,4 C 16,1 C 15,0 C 83 % 1011,8 hPa 0,0 l/m 0 min 0 min 0 W/m 0,0 km/h (0 Bft) 95,74 %
12.07.2019 02:08 16,4 C 16,1 C 15,0 C 84 % 1011,8 hPa 0,0 l/m 0 min 0 min 0 W/m 0,0 km/h (0 Bft) 97,83 %
12.07.2019 02:10 16,4 C 16,1 C 15,0 C 84 % 1011,8 hPa 0,0 l/m 0 min 0 min 0 W/m 0,0 km/h (0 Bft) 100,00 %
12.07.2019 02:12 16,4 C 16,1 C 15,0 C 84 % 1011,8 hPa 0,0 l/m 0 min 0 min 0 W/m 3,2 km/h (1 Bft) 97,87 %
12.07.2019 02:14 16,4 C 16,1 C 15,0 C 84 % 1011,8 hPa 0,0 l/m 0 min 0 min 0 W/m 0,0 km/h (0 Bft) 97,87 %
12.07.2019 02:16 16,4 C 16,1 C 15,0 C 84 % 1011,8 hPa 0,0 l/m 0 min 0 min 0 W/m 0,0 km/h (0 Bft) 97,87 %
12.07.2019 02:18 16,5 C 16,1 C 15,0 C 84 % 1011,8 hPa 0,0 l/m 0 min 0 min 0 W/m 3,2 km/h (1 Bft) 100,00 %
12.07.2019 02:20 16,5 C 16,1 C 15,0 C 84 % 1011,7 hPa 0,0 l/m 0 min 0 min 0 W/m 3,2 km/h (1 Bft) 100,00 %
12.07.2019 02:22 16,5 C 16,1 C 15,6 C 84 % 1011,6 hPa 0,0 l/m 0 min 0 min 0 W/m 3,2 km/h (1 Bft) 97,87 %
12.07.2019 02:24 16,6 C 16,1 C 15,6 C 84 % 1011,7 hPa 0,0 l/m 0 min 0 min 0 W/m 0,0 km/h (0 Bft) 97,87 %
12.07.2019 02:26 16,6 C 16,1 C 15,6 C 85 % 1011,7 hPa 0,0 l/m 0 min 0 min 0 W/m 3,2 km/h (1 Bft) 100,00 %
12.07.2019 02:28 16,6 C 16,1 C 15,6 C 85 % 1011,6 hPa 0,0 l/m 0 min 0 min 0 W/m 0,0 km/h (0 Bft) 100,00 %
12.07.2019 02:30 16,6 C 16,1 C 15,6 C 85 % 1011,6 hPa 0,0 l/m 0 min 0 min 0 W/m 0,0 km/h (0 Bft) 100,00 %
12.07.2019 02:32 16,6 C 16,1 C 15,0 C 84 % 1011,7 hPa 0,0 l/m 0 min 0 min 0 W/m 0,0 km/h (0 Bft) 95,65 %
12.07.2019 02:34 16,6 C 16,1 C 15,0 C 84 % 1011,6 hPa 0,0 l/m 0 min 0 min 0 W/m 3,2 km/h (1 Bft) 95,74 %
12.07.2019 02:36 16,6 C 16,1 C 15,0 C 84 % 1011,5 hPa 0,0 l/m 0 min 0 min 0 W/m 3,2 km/h (1 Bft) 95,74 %
12.07.2019 02:38 16,6 C 16,1 C 15,0 C 84 % 1011,5 hPa 0,0 l/m 0 min 0 min 0 W/m 3,2 km/h (1 Bft) 95,74 %
12.07.2019 02:40 16,7 C 15,6 C 15,0 C 84 % 1011,6 hPa 0,0 l/m 0 min 0 min 0 W/m 0,0 km/h (0 Bft) 97,87 %
12.07.2019 02:42 16,7 C 15,6 C 15,0 C 84 % 1011,5 hPa 0,0 l/m 0 min 0 min 0 W/m 3,2 km/h (1 Bft) 97,83 %
12.07.2019 02:44 16,7 C 15,6 C 15,0 C 84 % 1011,6 hPa 0,0 l/m 0 min 0 min 0 W/m 0,0 km/h (0 Bft) 97,87 %
12.07.2019 02:46 16,7 C 15,6 C 15,0 C 84 % 1011,6 hPa 0,0 l/m 0 min 0 min 0 W/m 0,0 km/h (0 Bft) 97,87 %
12.07.2019 02:48 16,7 C 15,6 C 15,0 C 84 % 1011,6 hPa 0,0 l/m 0 min 0 min 0 W/m 0,0 km/h (0 Bft) 97,87 %
12.07.2019 02:50 16,7 C 15,6 C 15,0 C 84 % 1011,6 hPa 0,0 l/m 0 min 0 min 0 W/m 0,0 km/h (0 Bft) 97,87 %
12.07.2019 02:52 16,7 C 15,6 C 15,0 C 84 % 1011,5 hPa 0,0 l/m 0 min 0 min 0 W/m 0,0 km/h (0 Bft) 95,74 %
12.07.2019 02:54 16,7 C 15,6 C 15,0 C 84 % 1011,5 hPa 0,0 l/m 0 min 0 min 0 W/m 0,0 km/h (0 Bft) 97,83 %
12.07.2019 02:56 16,7 C 15,6 C 15,0 C 84 % 1011,6 hPa 0,0 l/m 0 min 0 min 0 W/m 0,0 km/h (0 Bft) 95,74 %
12.07.2019 02:58 16,7 C 15,6 C 14,4 C 84 % 1011,6 hPa 0,0 l/m 0 min 0 min 0 W/m 0,0 km/h (0 Bft) 97,87 %
12.07.2019 03:00 16,7 C 15,6 C 14,4 C 84 % 1011,5 hPa 0,0 l/m 0 min 0 min 0 W/m 0,0 km/h (0 Bft) 97,87 %
12.07.2019 03:02 16,7 C 15,6 C 14,4 C 84 % 1011,5 hPa 0,0 l/m 0 min 0 min 0 W/m 0,0 km/h (0 Bft) 97,87 %
12.07.2019 03:04 16,7 C 15,0 C 14,4 C 84 % 1011,5 hPa 0,0 l/m 0 min 0 min 0 W/m 0,0 km/h (0 Bft) 95,74 %
12.07.2019 03:06 16,7 C 15,0 C 14,4 C 84 % 1011,5 hPa 0,0 l/m 0 min 0 min 0 W/m 0,0 km/h (0 Bft) 97,83 %
12.07.2019 03:08 16,7 C 15,0 C 14,4 C 84 % 1011,6 hPa 0,0 l/m 0 min 0 min 0 W/m 0,0 km/h (0 Bft) 95,74 %
12.07.2019 03:10 16,6 C 15,0 C 14,4 C 84 % 1011,4 hPa 0,0 l/m 0 min 0 min 0 W/m 0,0 km/h (0 Bft) 95,74 %
12.07.2019 03:12 16,6 C 15,0 C 14,4 C 83 % 1011,4 hPa 0,0 l/m 0 min 0 min 0 W/m 0,0 km/h (0 Bft) 95,74 %
12.07.2019 03:14 16,6 C 15,0 C 14,4 C 83 % 1011,5 hPa 0,0 l/m 0 min 0 min 0 W/m 0,0 km/h (0 Bft) 93,62 %
12.07.2019 03:16 16,6 C 15,0 C 14,4 C 83 % 1011,5 hPa 0,0 l/m 0 min 0 min 0 W/m 0,0 km/h (0 Bft) 91,49 %
12.07.2019 03:18 16,6 C 14,4 C 13,9 C 83 % 1011,5 hPa 0,0 l/m 0 min 0 min 0 W/m 0,0 km/h (0 Bft) 97,83 %
12.07.2019 03:20 16,6 C 15,0 C 13,9 C 83 % 1011,5 hPa 0,0 l/m 0 min 0 min 0 W/m 0,0 km/h (0 Bft) 95,74 %
12.07.2019 03:22 16,6 C 15,0 C 13,9 C 83 % 1011,6 hPa 0,0 l/m 0 min 0 min 0 W/m 0,0 km/h (0 Bft) 93,62 %
12.07.2019 03:24 16,5 C 14,4 C 13,9 C 83 % 1011,6 hPa 0,0 l/m 0 min 0 min 0 W/m 0,0 km/h (0 Bft) 97,87 %
12.07.2019 03:26 16,5 C 14,4 C 13,9 C 83 % 1011,5 hPa 0,0 l/m 0 min 0 min 0 W/m 0,0 km/h (0 Bft) 93,62 %
12.07.2019 03:28 16,5 C 14,4 C 13,9 C 83 % 1011,5 hPa 0,0 l/m 0 min 0 min 0 W/m 0,0 km/h (0 Bft) 97,87 %
12.07.2019 03:30 16,4 C 14,4 C 13,9 C 83 % 1011,5 hPa 0,0 l/m 0 min 0 min 0 W/m 0,0 km/h (0 Bft) 97,87 %
12.07.2019 03:32 16,4 C 14,4 C 13,9 C 84 % 1011,5 hPa 0,0 l/m 0 min 0 min 0 W/m 0,0 km/h (0 Bft) 95,65 %
12.07.2019 03:34 16,4 C 14,4 C 13,9 C 84 % 1011,5 hPa 0,0 l/m 0 min 0 min 0 W/m 0,0 km/h (0 Bft) 97,87 %
12.07.2019 03:36 16,4 C 14,4 C 13,9 C 84 % 1011,5 hPa 0,0 l/m 0 min 0 min 0 W/m 0,0 km/h (0 Bft) 95,74 %
12.07.2019 03:38 16,3 C 15,0 C 13,9 C 84 % 1011,5 hPa 0,0 l/m 0 min 0 min 0 W/m 0,0 km/h (0 Bft) 97,87 %
12.07.2019 03:40 16,3 C 15,0 C 13,9 C 84 % 1011,5 hPa 0,0 l/m 0 min 0 min 0 W/m 3,2 km/h (1 Bft) 95,74 %
12.07.2019 03:42 16,3 C 15,0 C 13,9 C 84 % 1011,4 hPa 0,0 l/m 0 min 0 min 0 W/m 3,2 km/h (1 Bft) 97,83 %
12.07.2019 03:44 16,3 C 15,0 C 13,9 C 84 % 1011,4 hPa 0,0 l/m 0 min 0 min 0 W/m 3,2 km/h (1 Bft) 95,74 %
12.07.2019 03:46 16,3 C 15,0 C 13,9 C 84 % 1011,3 hPa 0,0 l/m 0 min 0 min 0 W/m 3,2 km/h (1 Bft) 95,74 %
12.07.2019 03:48 16,3 C 15,0 C 13,9 C 84 % 1011,3 hPa 0,0 l/m 0 min 0 min 0 W/m 0,0 km/h (0 Bft) 97,87 %
12.07.2019 03:50 16,2 C 15,0 C 13,9 C 84 % 1011,3 hPa 0,0 l/m 0 min 0 min 0 W/m 0,0 km/h (0 Bft) 100,00 %
12.07.2019 03:52 16,2 C 15,0 C 13,9 C 84 % 1011,2 hPa 0,0 l/m 0 min 0 min 0 W/m 0,0 km/h (0 Bft) 100,00 %
12.07.2019 03:54 16,2 C 15,0 C 13,9 C 85 % 1011,1 hPa 0,0 l/m 0 min 0 min 0 W/m 0,0 km/h (0 Bft) 97,87 %
12.07.2019 03:56 16,2 C 14,4 C 13,9 C 85 % 1011,1 hPa 0,0 l/m 0 min 0 min 0 W/m 0,0 km/h (0 Bft) 100,00 %
12.07.2019 03:58 16,1 C 14,4 C 13,9 C 85 % 1011,1 hPa 0,0 l/m 0 min 0 min 0 W/m 0,0 km/h (0 Bft) 100,00 %
12.07.2019 04:00 16,1 C 14,4 C 13,9 C 85 % 1011,2 hPa 0,0 l/m 0 min 0 min 0 W/m 0,0 km/h (0 Bft) 100,00 %
12.07.2019 04:02 16,1 C 14,4 C 13,9 C 85 % 1011,2 hPa 0,0 l/m 0 min 0 min 0 W/m 0,0 km/h (0 Bft) 97,30 %
12.07.2019 04:04 16,1 C 14,4 C 13,9 C 85 % 1011,2 hPa 0,0 l/m 0 min 0 min 0 W/m 0,0 km/h (0 Bft) 97,83 %
12.07.2019 04:06 16,1 C 14,4 C 13,9 C 85 % 1011,3 hPa 0,0 l/m 0 min 0 min 0 W/m 0,0 km/h (0 Bft) 100,00 %
12.07.2019 04:08 16,1 C 14,4 C 13,3 C 85 % 1011,3 hPa 0,0 l/m 0 min 0 min 0 W/m 0,0 km/h (0 Bft) 100,00 %
12.07.2019 04:10 16,0 C 14,4 C 13,3 C 85 % 1011,3 hPa 0,0 l/m 0 min 0 min 0 W/m 0,0 km/h (0 Bft) 100,00 %
12.07.2019 04:12 16,0 C 14,4 C 13,3 C 85 % 1011,3 hPa 0,0 l/m 0 min 0 min 0 W/m 0,0 km/h (0 Bft) 100,00 %
12.07.2019 04:14 16,0 C 14,4 C 13,3 C 85 % 1011,2 hPa 0,0 l/m 0 min 0 min 0 W/m 0,0 km/h (0 Bft) 100,00 %
12.07.2019 04:16 15,9 C 14,4 C 13,3 C 85 % 1011,3 hPa 0,0 l/m 0 min 0 min 0 W/m 0,0 km/h (0 Bft) 100,00 %
12.07.2019 04:18 15,9 C 14,4 C 13,3 C 85 % 1011,2 hPa 0,0 l/m 0 min 0 min 0 W/m 0,0 km/h (0 Bft) 100,00 %
12.07.2019 04:20 15,9 C 14,4 C 13,3 C 85 % 1011,2 hPa 0,0 l/m 0 min 0 min 0 W/m 0,0 km/h (0 Bft) 100,00 %
12.07.2019 04:22 15,9 C 14,4 C 13,3 C 85 % 1011,2 hPa 0,0 l/m 0 min 0 min 0 W/m 0,0 km/h (0 Bft) 100,00 %
12.07.2019 04:24 15,9 C 14,4 C 13,3 C 85 % 1011,4 hPa 0,0 l/m 0 min 0 min 0 W/m 0,0 km/h (0 Bft) 100,00 %
12.07.2019 04:26 15,9 C 14,4 C 13,3 C 85 % 1011,3 hPa 0,0 l/m 0 min 0 min 0 W/m 0,0 km/h (0 Bft) 97,83 %
12.07.2019 04:28 15,8 C 13,9 C 13,3 C 85 % 1011,2 hPa 0,0 l/m 0 min 0 min 0 W/m 0,0 km/h (0 Bft) 100,00 %
12.07.2019 04:30 15,8 C 13,9 C 13,3 C 85 % 1011,3 hPa 0,0 l/m 0 min 0 min 0 W/m 0,0 km/h (0 Bft) 97,87 %
12.07.2019 04:32 15,8 C 13,9 C 13,3 C 85 % 1011,2 hPa 0,0 l/m 0 min 0 min 0 W/m 0,0 km/h (0 Bft) 100,00 %
12.07.2019 04:34 15,8 C 13,9 C 13,3 C 85 % 1011,2 hPa 0,0 l/m 0 min 0 min 0 W/m 0,0 km/h (0 Bft) 97,87 %
12.07.2019 04:36 15,7 C 13,9 C 13,3 C 85 % 1011,3 hPa 0,0 l/m 0 min 0 min 0 W/m 0,0 km/h (0 Bft) 97,87 %
12.07.2019 04:38 15,7 C 13,9 C 13,3 C 85 % 1011,3 hPa 0,0 l/m 0 min 0 min 0 W/m 0,0 km/h (0 Bft) 97,83 %
12.07.2019 04:40 15,7 C 14,4 C 13,3 C 85 % 1011,2 hPa 0,0 l/m 0 min 0 min 0 W/m 0,0 km/h (0 Bft) 100,00 %
12.07.2019 04:42 15,7 C 13,9 C 13,3 C 85 % 1011,2 hPa 0,0 l/m 0 min 0 min 0 W/m 0,0 km/h (0 Bft) 100,00 %
12.07.2019 04:44 15,7 C 14,4 C 13,3 C 85 % 1011,3 hPa 0,0 l/m 0 min 0 min 0 W/m 0,0 km/h (0 Bft) 100,00 %
12.07.2019 04:46 15,7 C 14,4 C 13,3 C 85 % 1011,2 hPa 0,0 l/m 0 min 0 min 0 W/m 0,0 km/h (0 Bft) 97,87 %
12.07.2019 04:48 15,7 C 14,4 C 13,3 C 86 % 1011,2 hPa 0,0 l/m 0 min 0 min 0 W/m 0,0 km/h (0 Bft) 97,87 %
12.07.2019 04:50 15,6 C 14,4 C 13,3 C 86 % 1011,2 hPa 0,0 l/m 0 min 0 min 0 W/m 0,0 km/h (0 Bft) 95,65 %
12.07.2019 04:52 15,6 C 14,4 C 13,3 C 86 % 1011,2 hPa 0,0 l/m 0 min 0 min 0 W/m 0,0 km/h (0 Bft) 97,87 %
12.07.2019 04:54 15,6 C 14,4 C 13,3 C 86 % 1011,3 hPa 0,0 l/m 0 min 0 min 0 W/m 0,0 km/h (0 Bft) 97,87 %
12.07.2019 04:56 15,6 C 13,9 C 13,3 C 86 % 1011,3 hPa 0,0 l/m 0 min 0 min 0 W/m 0,0 km/h (0 Bft) 95,74 %
12.07.2019 04:58 15,6 C 13,9 C 13,3 C 86 % 1011,3 hPa 0,0 l/m 0 min 0 min 0 W/m 0,0 km/h (0 Bft) 95,74 %
12.07.2019 05:00 15,6 C 13,9 C 13,3 C 86 % 1011,2 hPa 0,0 l/m 0 min 0 min 0 W/m 0,0 km/h (0 Bft) 97,87 %
12.07.2019 05:02 15,5 C 13,9 C 13,3 C 86 % 1011,2 hPa 0,0 l/m 0 min 0 min 0 W/m 0,0 km/h (0 Bft) 97,83 %
12.07.2019 05:04 15,5 C 13,9 C 13,3 C 86 % 1011,3 hPa 0,0 l/m 0 min 0 min 0 W/m 0,0 km/h (0 Bft) 97,87 %
12.07.2019 05:06 15,5 C 13,9 C 13,3 C 86 % 1011,3 hPa 0,0 l/m 0 min 0 min 0 W/m 0,0 km/h (0 Bft) 97,87 %
12.07.2019 05:08 15,4 C 13,9 C 13,3 C 86 % 1011,2 hPa 0,0 l/m 0 min 0 min 0 W/m 0,0 km/h (0 Bft) 97,87 %
12.07.2019 05:10 15,4 C 13,9 C 13,3 C 86 % 1011,2 hPa 0,0 l/m 0 min 0 min 0 W/m 0,0 km/h (0 Bft) 97,87 %
12.07.2019 05:12 15,4 C 13,9 C 13,3 C 86 % 1011,3 hPa 0,0 l/m 0 min 0 min 0 W/m 0,0 km/h (0 Bft) 97,87 %
12.07.2019 05:14 15,4 C 13,9 C 13,3 C 86 % 1011,2 hPa 0,0 l/m 0 min 0 min 0 W/m 0,0 km/h (0 Bft) 97,83 %
12.07.2019 05:16 15,4 C 13,9 C 13,3 C 86 % 1011,2 hPa 0,0 l/m 0 min 0 min 0 W/m 0,0 km/h (0 Bft) 97,87 %
12.07.2019 05:18 15,4 C 13,9 C 12,8 C 86 % 1011,2 hPa 0,0 l/m 0 min 0 min 0 W/m 0,0 km/h (0 Bft) 95,74 %
12.07.2019 05:20 15,4 C 13,9 C 12,8 C 86 % 1011,2 hPa 0,0 l/m 0 min 0 min 0 W/m 0,0 km/h (0 Bft) 95,74 %
12.07.2019 05:22 15,4 C 13,3 C 12,8 C 86 % 1011,2 hPa 0,0 l/m 0 min 0 min 0 W/m 0,0 km/h (0 Bft) 95,74 %
12.07.2019 05:24 15,3 C 13,3 C 12,8 C 86 % 1011,2 hPa 0,0 l/m 0 min 0 min 0 W/m 0,0 km/h (0 Bft) 93,62 %
12.07.2019 05:26 15,3 C 13,3 C 12,8 C 86 % 1011,2 hPa 0,0 l/m 0 min 0 min 0 W/m 0,0 km/h (0 Bft) 95,65 %
12.07.2019 05:28 15,3 C 13,3 C 12,8 C 86 % 1011,2 hPa 0,0 l/m 0 min 0 min 0 W/m 0,0 km/h (0 Bft) 95,74 %
12.07.2019 05:30 15,3 C 13,3 C 12,8 C 86 % 1011,2 hPa 0,0 l/m 0 min 0 min 0 W/m 0,0 km/h (0 Bft) 93,62 %
12.07.2019 05:32 15,3 C 13,3 C 12,8 C 86 % 1011,2 hPa 0,0 l/m 0 min 0 min 0 W/m 0,0 km/h (0 Bft) 91,49 %
12.07.2019 05:34 15,2 C 13,3 C 12,8 C 86 % 1011,2 hPa 0,0 l/m 0 min 0 min 0 W/m 0,0 km/h (0 Bft) 93,62 %
12.07.2019 05:36 15,2 C 13,3 C 12,8 C 86 % 1011,2 hPa 0,0 l/m 0 min 0 min 0 W/m 0,0 km/h (0 Bft) 91,49 %
12.07.2019 05:38 15,2 C 13,3 C 12,8 C 86 % 1011,2 hPa 0,0 l/m 0 min 0 min 3 W/m 0,0 km/h (0 Bft) 93,48 %
12.07.2019 05:40 15,2 C 13,3 C 12,8 C 86 % 1011,2 hPa 0,0 l/m 0 min 0 min 5 W/m 0,0 km/h (0 Bft) 93,62 %
12.07.2019 05:42 15,2 C 13,3 C 12,8 C 86 % 1011,2 hPa 0,0 l/m 0 min 0 min 5 W/m 0,0 km/h (0 Bft) 93,62 %
12.07.2019 05:44 15,1 C 13,3 C 12,8 C 86 % 1011,2 hPa 0,0 l/m 0 min 0 min 5 W/m 0,0 km/h (0 Bft) 93,62 %
12.07.2019 05:46 15,1 C 13,3 C 12,8 C 87 % 1011,1 hPa 0,0 l/m 0 min 0 min 7 W/m 0,0 km/h (0 Bft) 91,49 %
12.07.2019 05:48 15,1 C 13,3 C 12,8 C 87 % 1011,1 hPa 0,0 l/m 0 min 0 min 7 W/m 0,0 km/h (0 Bft) 91,30 %
12.07.2019 05:50 15,1 C 13,9 C 12,8 C 87 % 1011,1 hPa 0,0 l/m 0 min 0 min 8 W/m 0,0 km/h (0 Bft) 91,49 %
12.07.2019 05:52 15,1 C 13,9 C 12,8 C 87 % 1011,1 hPa 0,0 l/m 0 min 0 min 9 W/m 0,0 km/h (0 Bft) 91,49 %
12.07.2019 05:54 15,0 C 13,3 C 12,8 C 87 % 1011,1 hPa 0,0 l/m 0 min 0 min 11 W/m 0,0 km/h (0 Bft) 95,74 %
12.07.2019 05:56 15,0 C 13,3 C 12,8 C 87 % 1011,1 hPa 0,0 l/m 0 min 0 min 12 W/m 0,0 km/h (0 Bft) 95,74 %
12.07.2019 05:58 14,9 C 13,3 C 12,8 C 87 % 1011,1 hPa 0,0 l/m 0 min 0 min 12 W/m 0,0 km/h (0 Bft) 95,74 %
12.07.2019 06:00 14,9 C 13,3 C 12,8 C 87 % 1011,0 hPa 0,0 l/m 0 min 0 min 14 W/m 0,0 km/h (0 Bft) 95,65 %
12.07.2019 06:02 14,9 C 13,3 C 12,8 C 87 % 1011,1 hPa 0,0 l/m 0 min 0 min 15 W/m 0,0 km/h (0 Bft) 95,74 %
12.07.2019 06:04 14,9 C 13,9 C 12,8 C 87 % 1011,1 hPa 0,0 l/m 0 min 0 min 17 W/m 0,0 km/h (0 Bft) 95,74 %
12.07.2019 06:08 14,9 C 13,9 C 12,8 C 87 % 1010,9 hPa 0,0 l/m 0 min 0 min 18 W/m 3,2 km/h (1 Bft) 93,62 %
12.07.2019 06:10 14,9 C 13,9 C 13,3 C 87 % 1011,0 hPa 0,0 l/m 0 min 0 min 20 W/m 0,0 km/h (0 Bft) 97,87 %
12.07.2019 06:12 14,9 C 14,4 C 13,3 C 88 % 1010,9 hPa 0,0 l/m 0 min 0 min 21 W/m 0,0 km/h (0 Bft) 95,65 %
12.07.2019 06:14 14,9 C 14,4 C 13,3 C 88 % 1011,0 hPa 0,0 l/m 0 min 0 min 23 W/m 0,0 km/h (0 Bft) 97,87 %
12.07.2019 06:16 14,9 C 14,4 C 13,3 C 88 % 1011,0 hPa 0,0 l/m 0 min 0 min 23 W/m 0,0 km/h (0 Bft) 100,00 %
12.07.2019 06:18 14,9 C 14,4 C 13,3 C 88 % 1011,0 hPa 0,0 l/m 0 min 0 min 24 W/m 3,2 km/h (1 Bft) 97,87 %
12.07.2019 06:20 14,9 C 14,4 C 13,9 C 89 % 1010,9 hPa 0,0 l/m 0 min 0 min 25 W/m 0,0 km/h (0 Bft) 97,87 %
12.07.2019 06:22 14,9 C 14,4 C 13,9 C 89 % 1011,0 hPa 0,0 l/m 0 min 0 min 25 W/m 0,0 km/h (0 Bft) 100,00 %
12.07.2019 06:24 14,9 C 14,4 C 13,9 C 89 % 1011,0 hPa 0,0 l/m 0 min 0 min 25 W/m 0,0 km/h (0 Bft) 100,00 %
12.07.2019 06:26 14,9 C 14,4 C 13,9 C 89 % 1011,0 hPa 0,0 l/m 0 min 0 min 26 W/m 0,0 km/h (0 Bft) 100,00 %
12.07.2019 06:28 14,9 C 14,4 C 13,9 C 89 % 1011,1 hPa 0,0 l/m 0 min 0 min 28 W/m 0,0 km/h (0 Bft) 100,00 %
12.07.2019 06:30 14,9 C 14,4 C 13,9 C 89 % 1011,1 hPa 0,0 l/m 0 min 0 min 30 W/m 0,0 km/h (0 Bft) 100,00 %
12.07.2019 06:32 14,9 C 15,0 C 13,9 C 89 % 1011,0 hPa 0,0 l/m 0 min 0 min 32 W/m 0,0 km/h (0 Bft) 100,00 %
12.07.2019 06:34 14,9 C 15,0 C 13,9 C 90 % 1011,0 hPa 0,0 l/m 0 min 0 min 33 W/m 0,0 km/h (0 Bft) 100,00 %
12.07.2019 06:36 14,9 C 15,0 C 13,9 C 90 % 1011,0 hPa 0,0 l/m 0 min 0 min 33 W/m 0,0 km/h (0 Bft) 100,00 %
12.07.2019 06:38 14,9 C 15,0 C 13,9 C 90 % 1011,0 hPa 0,0 l/m 0 min 0 min 35 W/m 0,0 km/h (0 Bft) 100,00 %
12.07.2019 06:40 14,9 C 15,0 C 13,9 C 90 % 1011,0 hPa 0,0 l/m 0 min 0 min 35 W/m 0,0 km/h (0 Bft) 100,00 %
12.07.2019 06:42 14,9 C 15,0 C 13,9 C 90 % 1011,0 hPa 0,0 l/m 0 min 0 min 37 W/m 0,0 km/h (0 Bft) 100,00 %
12.07.2019 06:44 14,9 C 15,0 C 13,9 C 90 % 1011,1 hPa 0,0 l/m 0 min 0 min 39 W/m 0,0 km/h (0 Bft) 100,00 %
12.07.2019 06:46 14,9 C 15,0 C 13,9 C 90 % 1011,1 hPa 0,0 l/m 0 min 0 min 40 W/m 0,0 km/h (0 Bft) 100,00 %
12.07.2019 06:48 14,9 C 15,0 C 13,9 C 90 % 1011,1 hPa 0,0 l/m 0 min 0 min 40 W/m 0,0 km/h (0 Bft) 100,00 %
12.07.2019 06:50 15,0 C 15,0 C 13,9 C 90 % 1011,1 hPa 0,0 l/m 0 min 0 min 42 W/m 0,0 km/h (0 Bft) 100,00 %
12.07.2019 06:52 15,0 C 15,0 C 13,9 C 91 % 1011,1 hPa 0,0 l/m 0 min 0 min 42 W/m 0,0 km/h (0 Bft) 100,00 %
12.07.2019 06:54 15,0 C 15,6 C 14,4 C 91 % 1011,1 hPa 0,0 l/m 0 min 0 min 42 W/m 0,0 km/h (0 Bft) 100,00 %
12.07.2019 06:56 15,0 C 15,6 C 14,4 C 91 % 1011,0 hPa 0,0 l/m 0 min 0 min 42 W/m 0,0 km/h (0 Bft) 100,00 %
12.07.2019 06:58 15,0 C 15,6 C 14,4 C 91 % 1011,0 hPa 0,0 l/m 0 min 0 min 42 W/m 0,0 km/h (0 Bft) 100,00 %
12.07.2019 07:00 15,1 C 15,0 C 14,4 C 91 % 1011,1 hPa 0,0 l/m 0 min 0 min 42 W/m 0,0 km/h (0 Bft) 100,00 %
12.07.2019 07:02 15,1 C 15,6 C 14,4 C 91 % 1011,2 hPa 0,0 l/m 0 min 0 min 41 W/m 0,0 km/h (0 Bft) 100,00 %
12.07.2019 07:04 15,1 C 15,6 C 14,4 C 91 % 1011,2 hPa 0,0 l/m 0 min 0 min 42 W/m 0,0 km/h (0 Bft) 100,00 %
12.07.2019 07:06 15,1 C 15,6 C 14,4 C 91 % 1011,2 hPa 0,0 l/m 0 min 0 min 44 W/m 0,0 km/h (0 Bft) 100,00 %
12.07.2019 07:08 15,1 C 15,6 C 14,4 C 91 % 1011,2 hPa 0,0 l/m 0 min 0 min 46 W/m 0,0 km/h (0 Bft) 100,00 %
12.07.2019 07:10 15,1 C 15,6 C 14,4 C 91 % 1011,2 hPa 0,0 l/m 0 min 0 min 49 W/m 0,0 km/h (0 Bft) 100,00 %
12.07.2019 07:12 15,1 C 15,6 C 14,4 C 91 % 1011,2 hPa 0,0 l/m 0 min 0 min 51 W/m 0,0 km/h (0 Bft) 100,00 %
12.07.2019 07:14 15,2 C 15,6 C 14,4 C 91 % 1011,1 hPa 0,0 l/m 0 min 0 min 54 W/m 0,0 km/h (0 Bft) 100,00 %
12.07.2019 07:16 15,2 C 15,6 C 14,4 C 91 % 1011,2 hPa 0,0 l/m 0 min 0 min 58 W/m 0,0 km/h (0 Bft) 100,00 %
12.07.2019 07:18 15,2 C 16,1 C 14,4 C 91 % 1011,1 hPa 0,0 l/m 0 min 0 min 62 W/m 0,0 km/h (0 Bft) 100,00 %
12.07.2019 07:20 15,2 C 16,1 C 15,0 C 92 % 1011,1 hPa 0,0 l/m 0 min 0 min 68 W/m 0,0 km/h (0 Bft) 100,00 %
12.07.2019 07:22 15,2 C 16,7 C 15,0 C 92 % 1011,1 hPa 0,0 l/m 0 min 0 min 72 W/m 0,0 km/h (0 Bft) 100,00 %
12.07.2019 07:24 15,3 C 16,7 C 15,0 C 92 % 1011,1 hPa 0,0 l/m 0 min 0 min 76 W/m 0,0 km/h (0 Bft) 100,00 %
12.07.2019 07:26 15,3 C 16,7 C 15,6 C 92 % 1011,0 hPa 0,0 l/m 0 min 0 min 77 W/m 3,2 km/h (1 Bft) 97,87 %
12.07.2019 07:28 15,3 C 17,2 C 15,6 C 92 % 1011,1 hPa 0,0 l/m 0 min 0 min 77 W/m 0,0 km/h (0 Bft) 100,00 %
12.07.2019 07:30 15,4 C 17,2 C 15,6 C 92 % 1011,0 hPa 0,0 l/m 0 min 0 min 80 W/m 3,2 km/h (1 Bft) 100,00 %
12.07.2019 07:32 15,4 C 17,2 C 15,6 C 92 % 1011,0 hPa 0,0 l/m 0 min 0 min 88 W/m 0,0 km/h (0 Bft) 100,00 %
12.07.2019 07:34 15,4 C 17,8 C 16,1 C 92 % 1011,0 hPa 0,0 l/m 0 min 0 min 96 W/m 0,0 km/h (0 Bft) 100,00 %
12.07.2019 07:36 15,5 C 17,8 C 16,1 C 92 % 1011,0 hPa 0,0 l/m 0 min 0 min 104 W/m 3,2 km/h (1 Bft) 100,00 %
12.07.2019 07:38 15,6 C 18,3 C 16,7 C 92 % 1011,0 hPa 0,0 l/m 0 min 0 min 103 W/m 6,4 km/h (2 Bft) 100,00 %
12.07.2019 07:40 15,6 C 18,3 C 16,7 C 92 % 1011,1 hPa 0,0 l/m 0 min 0 min 102 W/m 6,4 km/h (2 Bft) 100,00 %
12.07.2019 07:42 15,7 C 18,3 C 16,7 C 92 % 1011,0 hPa 0,0 l/m 0 min 0 min 105 W/m 6,4 km/h (2 Bft) 97,87 %
12.07.2019 07:44 15,8 C 18,3 C 16,7 C 92 % 1011,0 hPa 0,0 l/m 0 min 0 min 108 W/m 6,4 km/h (2 Bft) 97,87 %
12.07.2019 07:46 15,8 C 18,3 C 17,2 C 92 % 1011,0 hPa 0,0 l/m 0 min 0 min 114 W/m 3,2 km/h (1 Bft) 97,83 %
12.07.2019 07:48 15,9 C 18,9 C 17,2 C 92 % 1011,0 hPa 0,0 l/m 0 min 0 min 132 W/m 3,2 km/h (1 Bft) 97,87 %
12.07.2019 07:50 16,0 C 18,3 C 17,2 C 92 % 1011,0 hPa 0,0 l/m 2 min 0 min 156 W/m 6,4 km/h (2 Bft) 100,00 %
12.07.2019 07:52 16,1 C 18,9 C 17,8 C 92 % 1011,1 hPa 0,0 l/m 2 min 0 min 182 W/m 3,2 km/h (1 Bft) 97,87 %
12.07.2019 07:54 16,2 C 19,4 C 18,3 C 92 % 1011,2 hPa 0,0 l/m 2 min 0 min 192 W/m 3,2 km/h (1 Bft) 100,00 %
12.07.2019 07:56 16,3 C 20,0 C 18,3 C 91 % 1011,2 hPa 0,0 l/m 2 min 0 min 188 W/m 0,0 km/h (0 Bft) 97,87 %
12.07.2019 07:58 16,3 C 20,0 C 18,3 C 91 % 1011,2 hPa 0,0 l/m 2 min 0 min 181 W/m 0,0 km/h (0 Bft) 100,00 %
12.07.2019 08:00 16,4 C 20,6 C 18,3 C 91 % 1011,2 hPa 0,0 l/m 2 min 0 min 170 W/m 0,0 km/h (0 Bft) 97,87 %
12.07.2019 08:02 16,6 C 20,6 C 18,3 C 91 % 1011,3 hPa 0,0 l/m 0 min 0 min 158 W/m 3,2 km/h (1 Bft) 97,87 %
12.07.2019 08:04 16,7 C 20,6 C 18,9 C 91 % 1011,3 hPa 0,0 l/m 0 min 0 min 148 W/m 0,0 km/h (0 Bft) 97,87 %
12.07.2019 08:06 16,8 C 20,6 C 18,9 C 91 % 1011,2 hPa 0,0 l/m 0 min 0 min 141 W/m 0,0 km/h (0 Bft) 95,74 %
12.07.2019 08:08 16,9 C 20,6 C 18,9 C 91 % 1011,2 hPa 0,0 l/m 0 min 0 min 137 W/m 3,2 km/h (1 Bft) 95,65 %
12.07.2019 08:10 17,1 C 21,1 C 18,9 C 91 % 1011,2 hPa 0,0 l/m 0 min 0 min 138 W/m 3,2 km/h (1 Bft) 95,74 %
12.07.2019 08:12 17,2 C 22,2 C 18,9 C 91 % 1011,2 hPa 0,0 l/m 0 min 0 min 147 W/m 3,2 km/h (1 Bft) 95,74 %
12.07.2019 08:14 17,3 C 22,8 C 18,9 C 90 % 1011,2 hPa 0,0 l/m 0 min 0 min 155 W/m 3,2 km/h (1 Bft) 95,74 %
12.07.2019 08:16 17,4 C 22,2 C 18,9 C 90 % 1011,2 hPa 0,0 l/m 0 min 0 min 153 W/m 3,2 km/h (1 Bft) 95,74 %
12.07.2019 08:18 17,6 C 22,2 C 18,9 C 90 % 1011,3 hPa 0,0 l/m 0 min 0 min 149 W/m 6,4 km/h (2 Bft) 93,62 %
12.07.2019 08:20 17,7 C 22,2 C 19,4 C 89 % 1011,3 hPa 0,0 l/m 0 min 0 min 153 W/m 3,2 km/h (1 Bft) 93,48 %
12.07.2019 08:22 17,8 C 22,2 C 19,4 C 89 % 1011,3 hPa 0,0 l/m 0 min 0 min 156 W/m 3,2 km/h (1 Bft) 93,62 %
12.07.2019 08:24 17,9 C 22,2 C 19,4 C 89 % 1011,3 hPa 0,0 l/m 0 min 0 min 155 W/m 6,4 km/h (2 Bft) 91,49 %
12.07.2019 08:26 18,0 C 22,2 C 19,4 C 88 % 1011,4 hPa 0,0 l/m 0 min 0 min 153 W/m 6,4 km/h (2 Bft) 89,36 %
12.07.2019 08:28 18,1 C 21,7 C 19,4 C 88 % 1011,4 hPa 0,0 l/m 0 min 0 min 155 W/m 3,2 km/h (1 Bft) 95,74 %
12.07.2019 08:30 18,3 C 22,2 C 19,4 C 88 % 1011,5 hPa 0,0 l/m 0 min 0 min 161 W/m 3,2 km/h (1 Bft) 93,62 %
12.07.2019 08:32 18,4 C 22,2 C 19,4 C 87 % 1011,5 hPa 0,0 l/m 0 min 0 min 166 W/m 3,2 km/h (1 Bft) 91,30 %
12.07.2019 08:34 18,5 C 22,2 C 20,0 C 87 % 1011,5 hPa 0,0 l/m 0 min 0 min 171 W/m 6,4 km/h (2 Bft) 93,62 %
12.07.2019 08:36 18,7 C 22,8 C 20,0 C 87 % 1011,5 hPa 0,0 l/m 0 min 0 min 172 W/m 3,2 km/h (1 Bft) 93,62 %
12.07.2019 08:38 18,8 C 22,8 C 20,6 C 87 % 1011,5 hPa 0,0 l/m 0 min 0 min 173 W/m 3,2 km/h (1 Bft) 93,62 %
12.07.2019 08:40 18,9 C 23,3 C 21,1 C 87 % 1011,5 hPa 0,0 l/m 0 min 0 min 174 W/m 9,7 km/h (2 Bft) 93,62 %
12.07.2019 08:42 19,1 C 23,3 C 21,7 C 86 % 1011,5 hPa 0,0 l/m 0 min 0 min 173 W/m 3,2 km/h (1 Bft) 91,49 %
12.07.2019 08:44 19,2 C 23,9 C 21,7 C 85 % 1011,5 hPa 0,0 l/m 0 min 0 min 177 W/m 6,4 km/h (2 Bft) 93,48 %
12.07.2019 08:46 19,3 C 23,3 C 21,7 C 85 % 1011,5 hPa 0,0 l/m 0 min 0 min 183 W/m 6,4 km/h (2 Bft) 95,74 %
12.07.2019 08:48 19,4 C 22,8 C 21,7 C 84 % 1011,4 hPa 0,0 l/m 0 min 0 min 179 W/m 6,4 km/h (2 Bft) 95,74 %
12.07.2019 08:50 19,6 C 22,2 C 21,1 C 83 % 1011,4 hPa 0,0 l/m 0 min 0 min 174 W/m 3,2 km/h (1 Bft) 95,74 %
12.07.2019 08:52 19,6 C 22,2 C 20,6 C 82 % 1011,4 hPa 0,0 l/m 0 min 0 min 170 W/m 6,4 km/h (2 Bft) 95,74 %
12.07.2019 08:54 19,7 C 22,2 C 21,1 C 81 % 1011,5 hPa 0,0 l/m 0 min 0 min 165 W/m 6,4 km/h (2 Bft) 91,49 %
12.07.2019 08:56 19,8 C 22,2 C 21,1 C 81 % 1011,5 hPa 0,0 l/m 0 min 0 min 157 W/m 3,2 km/h (1 Bft) 95,65 %
12.07.2019 08:58 19,9 C 22,2 C 21,1 C 81 % 1011,5 hPa 0,0 l/m 0 min 0 min 153 W/m 6,4 km/h (2 Bft) 95,74 %
12.07.2019 09:00 19,9 C 21,7 C 20,6 C 80 % 1011,5 hPa 0,0 l/m 0 min 0 min 158 W/m 6,4 km/h (2 Bft) 95,74 %
12.07.2019 09:02 20,0 C 21,7 C 21,1 C 80 % 1011,5 hPa 0,0 l/m 0 min 0 min 184 W/m 3,2 km/h (1 Bft) 95,74 %
12.07.2019 09:04 20,1 C 22,8 C 21,7 C 79 % 1011,6 hPa 0,0 l/m 0 min 0 min 226 W/m 9,7 km/h (2 Bft) 97,87 %
12.07.2019 09:06 20,1 C 22,8 C 21,1 C 79 % 1011,6 hPa 0,0 l/m 0 min 0 min 206 W/m 9,7 km/h (2 Bft) 100,00 %
12.07.2019 09:08 20,2 C 22,2 C 21,1 C 79 % 1011,5 hPa 0,0 l/m 0 min 0 min 216 W/m 3,2 km/h (1 Bft) 100,00 %
12.07.2019 09:10 20,3 C 22,2 C 21,1 C 79 % 1011,5 hPa 0,0 l/m 0 min 0 min 228 W/m 3,2 km/h (1 Bft) 100,00 %
12.07.2019 09:12 20,3 C 22,8 C 21,1 C 78 % 1011,5 hPa 0,0 l/m 0 min 0 min 247 W/m 12,9 km/h (3 Bft) 100,00 %
12.07.2019 09:14 20,4 C 23,9 C 22,8 C 78 % 1011,4 hPa 0,0 l/m 2 min 0 min 277 W/m 3,2 km/h (1 Bft) 97,87 %
12.07.2019 09:16 20,4 C 23,9 C 22,2 C 77 % 1011,5 hPa 0,0 l/m 2 min 0 min 290 W/m 6,4 km/h (2 Bft) 100,00 %
12.07.2019 09:18 20,5 C 23,3 C 21,7 C 77 % 1011,4 hPa 0,0 l/m 0 min 0 min 222 W/m 3,2 km/h (1 Bft) 100,00 %
12.07.2019 09:20 20,6 C 23,3 C 21,7 C 77 % 1011,4 hPa 0,0 l/m 0 min 0 min 217 W/m 6,4 km/h (2 Bft) 100,00 %
12.07.2019 09:22 20,7 C 22,8 C 21,1 C 77 % 1011,4 hPa 0,0 l/m 0 min 0 min 223 W/m 6,4 km/h (2 Bft) 95,74 %
12.07.2019 09:24 20,7 C 23,3 C 21,7 C 77 % 1011,4 hPa 0,0 l/m 0 min 0 min 229 W/m 3,2 km/h (1 Bft) 100,00 %
12.07.2019 09:26 20,7 C 22,8 C 21,7 C 77 % 1011,5 hPa 0,0 l/m 0 min 0 min 247 W/m 3,2 km/h (1 Bft) 100,00 %
12.07.2019 09:28 20,8 C 22,8 C 21,7 C 77 % 1011,5 hPa 0,0 l/m 0 min 0 min 240 W/m 6,4 km/h (2 Bft) 100,00 %
12.07.2019 09:30 20,8 C 22,8 C 21,1 C 76 % 1011,5 hPa 0,0 l/m 0 min 0 min 231 W/m 3,2 km/h (1 Bft) 100,00 %
12.07.2019 09:32 20,9 C 22,2 C 21,1 C 76 % 1011,5 hPa 0,0 l/m 0 min 0 min 230 W/m 6,4 km/h (2 Bft) 100,00 %
12.07.2019 09:34 20,9 C 22,8 C 21,1 C 76 % 1011,5 hPa 0,0 l/m 0 min 0 min 230 W/m 6,4 km/h (2 Bft) 97,87 %
12.07.2019 09:36 20,9 C 22,8 C 21,1 C 76 % 1011,4 hPa 0,0 l/m 0 min 0 min 236 W/m 6,4 km/h (2 Bft) 100,00 %
12.07.2019 09:38 21,0 C 22,8 C 21,1 C 76 % 1011,4 hPa 0,0 l/m 0 min 0 min 253 W/m 3,2 km/h (1 Bft) 100,00 %
12.07.2019 09:40 21,0 C 22,8 C 21,1 C 76 % 1011,4 hPa 0,0 l/m 0 min 0 min 268 W/m 6,4 km/h (2 Bft) 100,00 %
12.07.2019 09:42 21,0 C 23,3 C 21,7 C 75 % 1011,4 hPa 0,0 l/m 0 min 0 min 279 W/m 3,2 km/h (1 Bft) 97,83 %
12.07.2019 09:44 21,0 C 23,9 C 22,2 C 75 % 1011,3 hPa 0,0 l/m 2 min 0 min 320 W/m 9,7 km/h (2 Bft) 100,00 %
12.07.2019 09:46 21,1 C 24,4 C 22,8 C 75 % 1011,3 hPa 0,0 l/m 2 min 0 min 400 W/m 6,4 km/h (2 Bft) 100,00 %
12.07.2019 09:48 21,2 C 25,0 C 23,3 C 75 % 1011,3 hPa 0,0 l/m 2 min 0 min 367 W/m 9,7 km/h (2 Bft) 100,00 %
12.07.2019 09:50 21,2 C 23,9 C 22,8 C 74 % 1011,3 hPa 0,0 l/m 0 min 0 min 284 W/m 6,4 km/h (2 Bft) 100,00 %
12.07.2019 09:52 21,3 C 23,3 C 22,2 C 74 % 1011,3 hPa 0,0 l/m 0 min 0 min 231 W/m 6,4 km/h (2 Bft) 100,00 %
12.07.2019 09:54 21,3 C 22,8 C 21,7 C 74 % 1011,3 hPa 0,0 l/m 0 min 0 min 211 W/m 12,9 km/h (3 Bft) 100,00 %
12.07.2019 09:56 21,3 C 22,8 C 21,7 C 73 % 1011,3 hPa 0,0 l/m 0 min 0 min 188 W/m 3,2 km/h (1 Bft) 100,00 %
12.07.2019 09:58 21,3 C 22,8 C 21,1 C 74 % 1011,2 hPa 0,0 l/m 0 min 0 min 172 W/m 6,4 km/h (2 Bft) 100,00 %
12.07.2019 10:00 21,3 C 22,2 C 21,1 C 73 % 1011,3 hPa 0,0 l/m 0 min 0 min 172 W/m 6,4 km/h (2 Bft) 100,00 %
12.07.2019 10:02 21,3 C 22,2 C 21,1 C 73 % 1011,2 hPa 0,0 l/m 0 min 0 min 186 W/m 6,4 km/h (2 Bft) 100,00 %
12.07.2019 10:04 21,3 C 22,2 C 21,7 C 73 % 1011,2 hPa 0,0 l/m 0 min 0 min 218 W/m 9,7 km/h (2 Bft) 100,00 %
12.07.2019 10:06 21,3 C 23,9 C 22,8 C 73 % 1011,2 hPa 0,0 l/m 2 min 0 min 347 W/m 6,4 km/h (2 Bft) 97,83 %
12.07.2019 10:08 21,3 C 25,6 C 24,4 C 73 % 1011,2 hPa 0,0 l/m 2 min 0 min 386 W/m 6,4 km/h (2 Bft) 100,00 %
12.07.2019 10:10 21,4 C 25,6 C 24,4 C 74 % 1011,3 hPa 0,0 l/m 2 min 0 min 454 W/m 12,9 km/h (3 Bft) 100,00 %
12.07.2019 10:12 21,4 C 24,4 C 23,3 C 73 % 1011,3 hPa 0,0 l/m 0 min 0 min 234 W/m 6,4 km/h (2 Bft) 100,00 %
12.07.2019 10:14 21,4 C 23,9 C 22,8 C 73 % 1011,3 hPa 0,0 l/m 0 min 0 min 244 W/m 6,4 km/h (2 Bft) 100,00 %
12.07.2019 10:16 21,4 C 24,4 C 22,8 C 73 % 1011,3 hPa 0,0 l/m 0 min 0 min 280 W/m 6,4 km/h (2 Bft) 100,00 %
12.07.2019 10:18 21,5 C 24,4 C 23,3 C 73 % 1011,2 hPa 0,0 l/m 0 min 0 min 318 W/m 6,4 km/h (2 Bft) 100,00 %
12.07.2019 10:20 21,6 C 25,6 C 23,9 C 73 % 1011,2 hPa 0,0 l/m 0 min 0 min 255 W/m 6,4 km/h (2 Bft) 100,00 %
12.07.2019 10:22 21,6 C 26,1 C 25,0 C 72 % 1011,2 hPa 0,0 l/m 2 min 0 min 587 W/m 3,2 km/h (1 Bft) 100,00 %
12.07.2019 10:24 21,6 C 27,2 C 25,6 C 72 % 1011,3 hPa 0,0 l/m 2 min 0 min 352 W/m 3,2 km/h (1 Bft) 100,00 %
12.07.2019 10:26 21,7 C 28,9 C 27,2 C 72 % 1011,2 hPa 0,0 l/m 2 min 0 min 669 W/m 9,7 km/h (2 Bft) 100,00 %
12.07.2019 10:28 21,8 C 30,0 C 27,8 C 71 % 1011,2 hPa 0,0 l/m 2 min 0 min 683 W/m 9,7 km/h (2 Bft) 100,00 %
12.07.2019 10:30 21,9 C 30,0 C 28,9 C 70 % 1011,1 hPa 0,0 l/m 2 min 0 min 684 W/m 9,7 km/h (2 Bft) 95,74 %
12.07.2019 10:32 22,1 C 30,6 C 28,9 C 69 % 1011,2 hPa 0,0 l/m 2 min 0 min 677 W/m 6,4 km/h (2 Bft) 97,83 %
12.07.2019 10:34 22,2 C 30,0 C 28,9 C 67 % 1011,1 hPa 0,0 l/m 2 min 0 min 680 W/m 6,4 km/h (2 Bft) 97,87 %
12.07.2019 10:36 22,3 C 30,6 C 29,4 C 68 % 1011,1 hPa 0,0 l/m 2 min 0 min 664 W/m 9,7 km/h (2 Bft) 97,87 %
12.07.2019 10:38 22,4 C 30,0 C 29,4 C 67 % 1011,1 hPa 0,0 l/m 2 min 0 min 672 W/m 6,4 km/h (2 Bft) 97,87 %
12.07.2019 10:40 22,5 C 30,0 C 30,0 C 66 % 1011,1 hPa 0,0 l/m 2 min 0 min 672 W/m 6,4 km/h (2 Bft) 97,87 %
12.07.2019 10:42 22,7 C 30,6 C 30,6 C 67 % 1011,0 hPa 0,0 l/m 2 min 0 min 681 W/m 6,4 km/h (2 Bft) 97,87 %
12.07.2019 10:44 22,8 C 29,4 C 28,9 C 65 % 1011,0 hPa 0,0 l/m 2 min 0 min 690 W/m 6,4 km/h (2 Bft) 97,83 %
12.07.2019 10:46 22,9 C 30,0 C 29,4 C 65 % 1011,0 hPa 0,0 l/m 2 min 0 min 702 W/m 9,7 km/h (2 Bft) 97,87 %
12.07.2019 10:48 23,1 C 30,0 C 29,4 C 64 % 1011,0 hPa 0,0 l/m 2 min 0 min 714 W/m 6,4 km/h (2 Bft) 95,74 %
12.07.2019 10:50 23,2 C 30,6 C 30,0 C 63 % 1011,0 hPa 0,0 l/m 2 min 0 min 719 W/m 9,7 km/h (2 Bft) 97,87 %
12.07.2019 10:52 23,3 C 28,3 C 28,3 C 61 % 1011,0 hPa 0,0 l/m 2 min 0 min 729 W/m 12,9 km/h (3 Bft) 97,87 %
12.07.2019 10:54 23,4 C 28,3 C 28,3 C 61 % 1010,8 hPa 0,0 l/m 2 min 0 min 737 W/m 6,4 km/h (2 Bft) 97,87 %
12.07.2019 10:56 23,5 C 30,6 C 30,0 C 61 % 1010,8 hPa 0,0 l/m 2 min 0 min 743 W/m 6,4 km/h (2 Bft) 95,65 %
12.07.2019 10:58 23,6 C 28,3 C 28,9 C 61 % 1010,9 hPa 0,0 l/m 2 min 0 min 752 W/m 16,1 km/h (3 Bft) 95,74 %
12.07.2019 11:00 23,7 C 28,3 C 28,9 C 61 % 1010,8 hPa 0,0 l/m 2 min 0 min 772 W/m 16,1 km/h (3 Bft) 95,74 %
12.07.2019 11:02 23,8 C 30,6 C 30,6 C 62 % 1010,8 hPa 0,0 l/m 2 min 0 min 796 W/m 9,7 km/h (2 Bft) 95,74 %
12.07.2019 11:04 23,8 C 30,0 C 30,0 C 60 % 1010,9 hPa 0,0 l/m 2 min 0 min 808 W/m 16,1 km/h (3 Bft) 100,00 %
12.07.2019 11:06 23,9 C 30,0 C 30,0 C 60 % 1010,8 hPa 0,0 l/m 2 min 0 min 825 W/m 9,7 km/h (2 Bft) 93,48 %
12.07.2019 11:08 24,0 C 30,0 C 30,0 C 61 % 1010,8 hPa 0,0 l/m 2 min 0 min 793 W/m 9,7 km/h (2 Bft) 97,87 %
12.07.2019 11:10 24,1 C 30,0 C 30,0 C 60 % 1010,9 hPa 0,0 l/m 2 min 0 min 642 W/m 12,9 km/h (3 Bft) 97,87 %
12.07.2019 11:12 24,2 C 28,3 C 28,9 C 59 % 1011,0 hPa 0,0 l/m 2 min 0 min 638 W/m 6,4 km/h (2 Bft) 100,00 %
12.07.2019 11:14 24,2 C 28,3 C 28,3 C 59 % 1011,0 hPa 0,0 l/m 2 min 0 min 553 W/m 6,4 km/h (2 Bft) 95,74 %
12.07.2019 11:16 24,2 C 26,1 C 27,2 C 59 % 1010,9 hPa 0,0 l/m 2 min 0 min 425 W/m 9,7 km/h (2 Bft) 97,87 %
12.07.2019 11:18 24,2 C 25,6 C 26,1 C 59 % 1010,8 hPa 0,0 l/m 0 min 0 min 357 W/m 12,9 km/h (3 Bft) 97,83 %
12.07.2019 11:20 24,2 C 26,1 C 25,6 C 59 % 1010,9 hPa 0,0 l/m 0 min 0 min 330 W/m 6,4 km/h (2 Bft) 95,74 %
12.07.2019 11:22 24,2 C 26,1 C 25,6 C 59 % 1010,9 hPa 0,0 l/m 2 min 0 min 435 W/m 6,4 km/h (2 Bft) 95,74 %
12.07.2019 11:24 24,2 C 26,1 C 25,6 C 60 % 1011,0 hPa 0,0 l/m 2 min 0 min 429 W/m 6,4 km/h (2 Bft) 97,87 %
12.07.2019 11:26 24,2 C 25,6 C 25,0 C 59 % 1011,0 hPa 0,0 l/m 2 min 0 min 384 W/m 9,7 km/h (2 Bft) 95,74 %
12.07.2019 11:28 24,2 C 25,6 C 24,4 C 60 % 1011,0 hPa 0,0 l/m 0 min 0 min 346 W/m 12,9 km/h (3 Bft) 95,74 %
12.07.2019 11:30 24,1 C 25,0 C 24,4 C 59 % 1011,0 hPa 0,0 l/m 0 min 0 min 363 W/m 9,7 km/h (2 Bft) 93,48 %
12.07.2019 11:32 24,1 C 25,6 C 24,4 C 60 % 1010,9 hPa 0,0 l/m 0 min 0 min 362 W/m 6,4 km/h (2 Bft) 95,74 %
12.07.2019 11:34 24,1 C 25,6 C 24,4 C 60 % 1010,8 hPa 0,0 l/m 0 min 0 min 342 W/m 12,9 km/h (3 Bft) 97,87 %
12.07.2019 11:36 24,0 C 25,6 C 24,4 C 60 % 1010,9 hPa 0,0 l/m 0 min 0 min 321 W/m 9,7 km/h (2 Bft) 97,87 %
12.07.2019 11:38 24,0 C 25,6 C 24,4 C 61 % 1011,0 hPa 0,0 l/m 0 min 0 min 306 W/m 12,9 km/h (3 Bft) 95,74 %
12.07.2019 11:40 24,1 C 25,6 C 24,4 C 62 % 1011,1 hPa 0,0 l/m 0 min 0 min 288 W/m 6,4 km/h (2 Bft) 93,62 %
12.07.2019 11:42 24,0 C 25,6 C 24,4 C 62 % 1011,0 hPa 0,0 l/m 0 min 0 min 299 W/m 6,4 km/h (2 Bft) 95,65 %
12.07.2019 11:44 24,0 C 25,6 C 24,4 C 63 % 1011,0 hPa 0,0 l/m 0 min 0 min 338 W/m 6,4 km/h (2 Bft) 97,87 %
12.07.2019 11:46 24,0 C 25,6 C 24,4 C 62 % 1010,9 hPa 0,0 l/m 0 min 0 min 364 W/m 3,2 km/h (1 Bft) 95,74 %
12.07.2019 11:48 23,9 C 25,0 C 23,9 C 60 % 1010,9 hPa 0,0 l/m 0 min 0 min 366 W/m 9,7 km/h (2 Bft) 95,74 %
12.07.2019 11:50 23,8 C 25,0 C 24,4 C 60 % 1010,8 hPa 0,0 l/m 0 min 0 min 377 W/m 9,7 km/h (2 Bft) 95,74 %
12.07.2019 11:52 23,9 C 26,7 C 25,6 C 61 % 1010,8 hPa 0,0 l/m 2 min 0 min 408 W/m 6,4 km/h (2 Bft) 93,62 %
12.07.2019 11:54 23,9 C 27,8 C 26,7 C 62 % 1010,8 hPa 0,0 l/m 2 min 0 min 481 W/m 12,9 km/h (3 Bft) 95,65 %
12.07.2019 11:56 24,0 C 28,3 C 27,2 C 63 % 1010,7 hPa 0,0 l/m 2 min 0 min 561 W/m 6,4 km/h (2 Bft) 95,74 %
12.07.2019 11:58 24,2 C 30,0 C 28,3 C 61 % 1010,8 hPa 0,0 l/m 2 min 0 min 871 W/m 16,1 km/h (3 Bft) 95,74 %
12.07.2019 12:00 24,3 C 28,9 C 27,8 C 61 % 1010,8 hPa 0,0 l/m 2 min 0 min 648 W/m 6,4 km/h (2 Bft) 95,74 %
12.07.2019 12:02 24,4 C 29,4 C 27,2 C 61 % 1010,7 hPa 0,0 l/m 2 min 0 min 458 W/m 6,4 km/h (2 Bft) 93,62 %
12.07.2019 12:04 24,4 C 29,4 C 27,8 C 59 % 1010,8 hPa 0,0 l/m 2 min 0 min 475 W/m 6,4 km/h (2 Bft) 93,62 %
12.07.2019 12:08 24,6 C 28,3 C 26,7 C 61 % 1010,7 hPa 0,0 l/m 4 min 0 min 514 W/m 6,4 km/h (2 Bft) 94,62 %
12.07.2019 12:10 24,7 C 27,8 C 26,1 C 62 % 1010,8 hPa 0,0 l/m 0 min 0 min 325 W/m 6,4 km/h (2 Bft) 97,87 %
12.07.2019 12:12 24,7 C 26,7 C 25,6 C 60 % 1010,8 hPa 0,0 l/m 0 min 0 min 321 W/m 9,7 km/h (2 Bft) 97,87 %
12.07.2019 12:14 24,7 C 26,7 C 25,6 C 58 % 1010,8 hPa 0,0 l/m 0 min 0 min 340 W/m 6,4 km/h (2 Bft) 97,87 %
12.07.2019 12:16 24,7 C 27,2 C 26,1 C 59 % 1010,7 hPa 0,0 l/m 0 min 0 min 386 W/m 6,4 km/h (2 Bft) 97,83 %
12.07.2019 12:18 24,8 C 27,8 C 26,7 C 60 % 1010,7 hPa 0,0 l/m 2 min 0 min 433 W/m 6,4 km/h (2 Bft) 93,62 %
12.07.2019 12:20 24,8 C 28,3 C 26,7 C 59 % 1010,8 hPa 0,0 l/m 2 min 0 min 433 W/m 3,2 km/h (1 Bft) 97,87 %
12.07.2019 12:22 24,9 C 30,0 C 28,3 C 59 % 1010,7 hPa 0,0 l/m 2 min 0 min 438 W/m 6,4 km/h (2 Bft) 97,87 %
12.07.2019 12:24 25,1 C 31,1 C 29,4 C 60 % 1010,6 hPa 0,0 l/m 2 min 0 min 438 W/m 9,7 km/h (2 Bft) 95,74 %
12.07.2019 12:26 25,1 C 30,0 C 28,9 C 57 % 1010,7 hPa 0,0 l/m 2 min 0 min 459 W/m 12,9 km/h (3 Bft) 95,74 %
12.07.2019 12:28 25,2 C 28,3 C 27,8 C 58 % 1010,8 hPa 0,0 l/m 0 min 0 min 390 W/m 6,4 km/h (2 Bft) 97,87 %
12.07.2019 12:30 25,2 C 27,8 C 27,2 C 57 % 1010,6 hPa 0,0 l/m 0 min 0 min 357 W/m 9,7 km/h (2 Bft) 97,83 %
12.07.2019 12:32 25,3 C 28,9 C 27,8 C 58 % 1010,6 hPa 0,0 l/m 2 min 0 min 522 W/m 16,1 km/h (3 Bft) 97,87 %
12.07.2019 12:34 25,3 C 30,0 C 28,3 C 58 % 1010,6 hPa 0,0 l/m 2 min 0 min 529 W/m 12,9 km/h (3 Bft) 97,87 %
12.07.2019 12:36 25,4 C 29,4 C 27,8 C 58 % 1010,7 hPa 0,0 l/m 2 min 0 min 657 W/m 6,4 km/h (2 Bft) 97,87 %
12.07.2019 12:38 25,5 C 29,4 C 28,3 C 57 % 1010,6 hPa 0,0 l/m 2 min 0 min 657 W/m 9,7 km/h (2 Bft) 97,87 %
12.07.2019 12:40 25,6 C 30,0 C 29,4 C 58 % 1010,6 hPa 0,0 l/m 2 min 0 min 806 W/m 12,9 km/h (3 Bft) 95,65 %
12.07.2019 12:42 25,6 C 29,4 C 27,8 C 58 % 1010,6 hPa 0,0 l/m 2 min 0 min 566 W/m 12,9 km/h (3 Bft) 97,87 %
12.07.2019 12:44 25,7 C 28,9 C 27,2 C 57 % 1010,6 hPa 0,0 l/m 0 min 0 min 363 W/m 6,4 km/h (2 Bft) 97,87 %
12.07.2019 12:46 25,7 C 29,4 C 27,8 C 58 % 1010,6 hPa 0,0 l/m 0 min 0 min 407 W/m 6,4 km/h (2 Bft) 97,87 %
12.07.2019 12:48 25,8 C 30,6 C 28,9 C 59 % 1010,5 hPa 0,0 l/m 2 min 0 min 778 W/m 6,4 km/h (2 Bft) 97,87 %
12.07.2019 12:50 25,8 C 31,7 C 30,0 C 59 % 1010,5 hPa 0,0 l/m 2 min 0 min 758 W/m 6,4 km/h (2 Bft) 100,00 %
12.07.2019 12:52 26,0 C 32,2 C 30,6 C 60 % 1010,5 hPa 0,0 l/m 2 min 0 min 826 W/m 6,4 km/h (2 Bft) 100,00 %
12.07.2019 12:54 26,1 C 30,6 C 28,9 C 57 % 1010,4 hPa 0,0 l/m 2 min 0 min 715 W/m 16,1 km/h (3 Bft) 97,87 %
12.07.2019 12:56 26,1 C 28,9 C 27,8 C 57 % 1010,5 hPa 0,0 l/m 0 min 0 min 377 W/m 9,7 km/h (2 Bft) 97,87 %
12.07.2019 12:58 26,1 C 28,3 C 27,8 C 56 % 1010,4 hPa 0,0 l/m 2 min 0 min 460 W/m 9,7 km/h (2 Bft) 100,00 %
12.07.2019 13:00 26,0 C 28,3 C 27,8 C 56 % 1010,4 hPa 0,0 l/m 2 min 0 min 503 W/m 12,9 km/h (3 Bft) 100,00 %
12.07.2019 13:02 26,0 C 29,4 C 28,9 C 56 % 1010,4 hPa 0,0 l/m 2 min 0 min 520 W/m 16,1 km/h (3 Bft) 95,74 %
12.07.2019 13:04 26,0 C 28,9 C 28,9 C 56 % 1010,4 hPa 0,0 l/m 2 min 0 min 678 W/m 9,7 km/h (2 Bft) 97,83 %
12.07.2019 13:06 26,1 C 29,4 C 28,9 C 58 % 1010,4 hPa 0,0 l/m 2 min 0 min 437 W/m 6,4 km/h (2 Bft) 95,74 %
12.07.2019 13:08 26,1 C 30,6 C 30,6 C 56 % 1010,4 hPa 0,0 l/m 2 min 0 min 599 W/m 9,7 km/h (2 Bft) 97,87 %
12.07.2019 13:10 26,2 C 31,1 C 31,7 C 55 % 1010,4 hPa 0,0 l/m 2 min 0 min 940 W/m 9,7 km/h (2 Bft) 97,87 %
12.07.2019 13:12 26,3 C 32,8 C 32,8 C 57 % 1010,4 hPa 0,0 l/m 2 min 0 min 967 W/m 6,4 km/h (2 Bft) 97,87 %
12.07.2019 13:14 26,3 C 31,1 C 31,7 C 54 % 1010,3 hPa 0,0 l/m 2 min 0 min 980 W/m 9,7 km/h (2 Bft) 97,87 %
12.07.2019 13:16 26,4 C 32,8 C 33,3 C 57 % 1010,3 hPa 0,0 l/m 2 min 0 min 963 W/m 6,4 km/h (2 Bft) 97,83 %
12.07.2019 13:18 26,6 C 33,9 C 33,9 C 57 % 1010,2 hPa 0,0 l/m 2 min 0 min 918 W/m 12,9 km/h (3 Bft) 97,87 %
12.07.2019 13:20 26,7 C 33,9 C 33,9 C 58 % 1010,2 hPa 0,0 l/m 2 min 0 min 797 W/m 9,7 km/h (2 Bft) 97,87 %
12.07.2019 13:22 26,8 C 32,8 C 33,3 C 56 % 1010,3 hPa 0,0 l/m 2 min 0 min 872 W/m 9,7 km/h (2 Bft) 97,87 %
12.07.2019 13:24 26,9 C 33,3 C 33,9 C 57 % 1010,2 hPa 0,0 l/m 2 min 0 min 972 W/m 6,4 km/h (2 Bft) 95,74 %
12.07.2019 13:26 27,1 C 33,3 C 33,9 C 56 % 1010,2 hPa 0,0 l/m 2 min 0 min 956 W/m 6,4 km/h (2 Bft) 97,87 %
12.07.2019 13:28 27,1 C 32,2 C 31,7 C 56 % 1010,3 hPa 0,0 l/m 2 min 0 min 536 W/m 6,4 km/h (2 Bft) 97,83 %
12.07.2019 13:30 27,1 C 31,1 C 32,2 C 53 % 1010,2 hPa 0,0 l/m 2 min 0 min 787 W/m 16,1 km/h (3 Bft) 97,87 %
12.07.2019 13:32 27,2 C 32,2 C 33,3 C 55 % 1010,2 hPa 0,0 l/m 2 min 0 min 945 W/m 9,7 km/h (2 Bft) 97,87 %
12.07.2019 13:34 27,2 C 31,1 C 32,2 C 52 % 1010,2 hPa 0,0 l/m 2 min 0 min 963 W/m 16,1 km/h (3 Bft) 97,87 %
12.07.2019 13:36 27,2 C 32,2 C 32,8 C 53 % 1010,2 hPa 0,0 l/m 2 min 0 min 1000 W/m 6,4 km/h (2 Bft) 97,87 %
12.07.2019 13:38 27,3 C 31,7 C 32,2 C 53 % 1010,2 hPa 0,0 l/m 2 min 0 min 873 W/m 12,9 km/h (3 Bft) 97,87 %
12.07.2019 13:40 27,3 C 31,7 C 30,6 C 53 % 1010,2 hPa 0,0 l/m 2 min 0 min 587 W/m 9,7 km/h (2 Bft) 97,83 %
12.07.2019 13:42 27,3 C 31,7 C 30,6 C 54 % 1010,2 hPa 0,0 l/m 2 min 0 min 504 W/m 6,4 km/h (2 Bft) 95,74 %
12.07.2019 13:44 27,4 C 32,8 C 31,7 C 55 % 1010,2 hPa 0,0 l/m 2 min 0 min 504 W/m 9,7 km/h (2 Bft) 97,87 %
12.07.2019 13:46 27,4 C 31,7 C 30,6 C 53 % 1010,2 hPa 0,0 l/m 2 min 0 min 636 W/m 16,1 km/h (3 Bft) 100,00 %
12.07.2019 13:48 27,4 C 32,2 C 30,6 C 55 % 1010,2 hPa 0,0 l/m 2 min 0 min 564 W/m 9,7 km/h (2 Bft) 100,00 %
12.07.2019 13:50 27,4 C 31,1 C 30,6 C 52 % 1010,2 hPa 0,0 l/m 2 min 0 min 852 W/m 6,4 km/h (2 Bft) 100,00 %
12.07.2019 13:52 27,5 C 30,6 C 28,9 C 54 % 1010,3 hPa 0,0 l/m 2 min 0 min 559 W/m 6,4 km/h (2 Bft) 100,00 %
12.07.2019 13:54 27,4 C 29,4 C 28,3 C 54 % 1010,3 hPa 0,0 l/m 0 min 0 min 364 W/m 9,7 km/h (2 Bft) 97,87 %
12.07.2019 13:56 27,4 C 28,3 C 27,8 C 53 % 1010,3 hPa 0,0 l/m 0 min 0 min 352 W/m 6,4 km/h (2 Bft) 100,00 %
12.07.2019 13:58 27,3 C 28,3 C 26,7 C 53 % 1010,3 hPa 0,0 l/m 0 min 0 min 344 W/m 9,7 km/h (2 Bft) 100,00 %
12.07.2019 14:00 27,2 C 28,3 C 26,7 C 53 % 1010,3 hPa 0,0 l/m 0 min 0 min 384 W/m 9,7 km/h (2 Bft) 100,00 %
12.07.2019 14:02 27,1 C 28,9 C 27,8 C 54 % 1010,3 hPa 0,0 l/m 2 min 0 min 482 W/m 6,4 km/h (2 Bft) 97,83 %
12.07.2019 14:04 27,1 C 30,0 C 28,9 C 54 % 1010,3 hPa 0,0 l/m 2 min 0 min 485 W/m 9,7 km/h (2 Bft) 100,00 %
12.07.2019 14:06 27,1 C 30,0 C 28,3 C 53 % 1010,3 hPa 0,0 l/m 2 min 0 min 639 W/m 12,9 km/h (3 Bft) 100,00 %
12.07.2019 14:08 27,0 C 28,9 C 27,8 C 52 % 1010,3 hPa 0,0 l/m 0 min 0 min 349 W/m 9,7 km/h (2 Bft) 100,00 %
12.07.2019 14:10 26,9 C 28,3 C 27,2 C 53 % 1010,3 hPa 0,0 l/m 0 min 0 min 269 W/m 6,4 km/h (2 Bft) 100,00 %
12.07.2019 14:12 26,9 C 27,8 C 26,1 C 53 % 1010,3 hPa 0,0 l/m 0 min 0 min 228 W/m 9,7 km/h (2 Bft) 100,00 %
12.07.2019 14:14 26,8 C 26,7 C 25,6 C 54 % 1010,4 hPa 0,0 l/m 0 min 0 min 211 W/m 12,9 km/h (3 Bft) 100,00 %
12.07.2019 14:16 26,7 C 26,1 C 25,0 C 55 % 1010,4 hPa 0,0 l/m 0 min 0 min 203 W/m 12,9 km/h (3 Bft) 100,00 %
12.07.2019 14:18 26,5 C 25,6 C 25,0 C 56 % 1010,4 hPa 0,0 l/m 0 min 0 min 199 W/m 6,4 km/h (2 Bft) 100,00 %
12.07.2019 14:20 26,4 C 25,0 C 25,0 C 57 % 1010,4 hPa 0,0 l/m 0 min 0 min 205 W/m 12,9 km/h (3 Bft) 100,00 %
12.07.2019 14:22 26,3 C 25,0 C 24,4 C 57 % 1010,5 hPa 0,0 l/m 0 min 0 min 216 W/m 12,9 km/h (3 Bft) 100,00 %
12.07.2019 14:24 26,1 C 25,0 C 24,4 C 58 % 1010,5 hPa 0,0 l/m 0 min 0 min 223 W/m 9,7 km/h (2 Bft) 100,00 %
12.07.2019 14:26 25,9 C 25,0 C 24,4 C 59 % 1010,4 hPa 0,0 l/m 0 min 0 min 225 W/m 9,7 km/h (2 Bft) 100,00 %
12.07.2019 14:28 25,8 C 25,0 C 24,4 C 59 % 1010,5 hPa 0,0 l/m 0 min 0 min 220 W/m 16,1 km/h (3 Bft) 100,00 %
12.07.2019 14:30 25,7 C 25,0 C 24,4 C 59 % 1010,5 hPa 0,0 l/m 0 min 0 min 214 W/m 19,3 km/h (3 Bft) 100,00 %
12.07.2019 14:32 25,5 C 24,4 C 23,9 C 59 % 1010,5 hPa 0,0 l/m 0 min 0 min 214 W/m 16,1 km/h (3 Bft) 100,00 %
12.07.2019 14:34 25,3 C 24,4 C 23,9 C 60 % 1010,5 hPa 0,0 l/m 0 min 0 min 237 W/m 12,9 km/h (3 Bft) 97,87 %
12.07.2019 14:36 25,2 C 23,9 C 23,9 C 59 % 1010,6 hPa 0,0 l/m 0 min 0 min 280 W/m 22,5 km/h (4 Bft) 95,74 %
12.07.2019 14:38 25,1 C 24,4 C 23,9 C 60 % 1010,6 hPa 0,0 l/m 0 min 0 min 318 W/m 9,7 km/h (2 Bft) 97,92 %
12.07.2019 14:40 24,9 C 25,0 C 24,4 C 61 % 1010,5 hPa 0,0 l/m 0 min 0 min 383 W/m 9,7 km/h (2 Bft) 97,87 %
12.07.2019 14:42 24,8 C 25,6 C 24,4 C 60 % 1010,5 hPa 0,0 l/m 2 min 0 min 433 W/m 16,1 km/h (3 Bft) 93,48 %
12.07.2019 14:44 24,7 C 26,1 C 25,0 C 61 % 1010,6 hPa 0,0 l/m 2 min 0 min 446 W/m 9,7 km/h (2 Bft) 93,62 %
12.07.2019 14:46 24,7 C 26,1 C 25,0 C 61 % 1010,7 hPa 0,0 l/m 2 min 0 min 463 W/m 12,9 km/h (3 Bft) 95,74 %
12.07.2019 14:48 24,7 C 26,1 C 25,0 C 62 % 1010,7 hPa 0,0 l/m 0 min 0 min 401 W/m 9,7 km/h (2 Bft) 97,87 %
12.07.2019 14:50 24,7 C 25,6 C 24,4 C 62 % 1010,7 hPa 0,0 l/m 0 min 0 min 307 W/m 12,9 km/h (3 Bft) 97,87 %
12.07.2019 14:52 24,6 C 25,0 C 24,4 C 62 % 1010,7 hPa 0,0 l/m 0 min 0 min 300 W/m 22,5 km/h (4 Bft) 95,74 %
12.07.2019 14:54 24,6 C 24,4 C 23,9 C 63 % 1010,6 hPa 0,0 l/m 0 min 0 min 302 W/m 9,7 km/h (2 Bft) 95,65 %
12.07.2019 14:56 24,5 C 24,4 C 23,9 C 63 % 1010,7 hPa 0,0 l/m 0 min 0 min 296 W/m 16,1 km/h (3 Bft) 93,62 %
12.07.2019 14:58 24,4 C 23,9 C 23,9 C 64 % 1010,7 hPa 0,0 l/m 0 min 0 min 313 W/m 12,9 km/h (3 Bft) 97,87 %
12.07.2019 15:00 24,4 C 23,9 C 23,9 C 64 % 1010,7 hPa 0,0 l/m 0 min 0 min 305 W/m 22,5 km/h (4 Bft) 95,74 %
12.07.2019 15:02 24,3 C 23,9 C 23,9 C 65 % 1010,6 hPa 0,0 l/m 0 min 0 min 289 W/m 9,7 km/h (2 Bft) 93,62 %
12.07.2019 15:04 24,2 C 23,9 C 23,9 C 65 % 1010,6 hPa 0,0 l/m 0 min 0 min 266 W/m 19,3 km/h (3 Bft) 95,74 %
12.07.2019 15:06 24,2 C 23,9 C 23,3 C 65 % 1010,7 hPa 0,0 l/m 0 min 0 min 252 W/m 12,9 km/h (3 Bft) 95,65 %
12.07.2019 15:08 24,1 C 23,9 C 23,3 C 66 % 1010,7 hPa 0,0 l/m 0 min 0 min 237 W/m 16,1 km/h (3 Bft) 95,74 %
12.07.2019 15:10 24,0 C 23,3 C 23,3 C 66 % 1010,7 hPa 0,0 l/m 0 min 0 min 220 W/m 16,1 km/h (3 Bft) 95,74 %
12.07.2019 15:12 23,9 C 23,3 C 23,3 C 65 % 1010,7 hPa 0,0 l/m 0 min 0 min 211 W/m 16,1 km/h (3 Bft) 93,62 %
12.07.2019 15:14 23,8 C 23,3 C 23,3 C 65 % 1010,6 hPa 0,0 l/m 0 min 0 min 201 W/m 12,9 km/h (3 Bft) 95,74 %
12.07.2019 15:16 23,7 C 23,3 C 23,3 C 64 % 1010,7 hPa 0,0 l/m 0 min 0 min 188 W/m 16,1 km/h (3 Bft) 95,74 %
12.07.2019 15:18 23,7 C 22,8 C 23,3 C 64 % 1010,7 hPa 0,0 l/m 0 min 0 min 173 W/m 16,1 km/h (3 Bft) 95,65 %
12.07.2019 15:20 23,6 C 22,8 C 23,3 C 64 % 1010,7 hPa 0,0 l/m 0 min 0 min 146 W/m 6,4 km/h (2 Bft) 95,74 %
12.07.2019 15:22 23,6 C 22,8 C 22,8 C 64 % 1010,7 hPa 0,0 l/m 0 min 0 min 130 W/m 9,7 km/h (2 Bft) 95,74 %
12.07.2019 15:24 23,5 C 22,8 C 22,8 C 64 % 1010,7 hPa 0,0 l/m 0 min 0 min 127 W/m 9,7 km/h (2 Bft) 95,74 %
12.07.2019 15:26 23,4 C 22,2 C 22,8 C 65 % 1010,6 hPa 0,0 l/m 0 min 0 min 128 W/m 12,9 km/h (3 Bft) 95,74 %
12.07.2019 15:28 23,3 C 22,2 C 22,2 C 66 % 1010,8 hPa 0,0 l/m 0 min 0 min 126 W/m 16,1 km/h (3 Bft) 95,65 %
12.07.2019 15:30 23,2 C 21,7 C 22,2 C 67 % 1010,8 hPa 0,0 l/m 0 min 0 min 109 W/m 22,5 km/h (4 Bft) 97,87 %
12.07.2019 15:32 23,0 C 21,7 C 22,2 C 67 % 1010,9 hPa 0,0 l/m 0 min 0 min 76 W/m 16,1 km/h (3 Bft) 97,87 %
12.07.2019 15:34 22,9 C 21,1 C 21,7 C 68 % 1011,0 hPa 0,0 l/m 0 min 0 min 47 W/m 16,1 km/h (3 Bft) 95,74 %
12.07.2019 15:36 22,6 C 20,6 C 21,7 C 68 % 1011,1 hPa 0,0 l/m 0 min 0 min 37 W/m 16,1 km/h (3 Bft) 97,87 %
12.07.2019 15:38 22,4 C 20,0 C 21,1 C 68 % 1011,1 hPa 0,0 l/m 0 min 0 min 34 W/m 19,3 km/h (3 Bft) 95,92 %
12.07.2019 15:40 22,2 C 18,9 C 20,6 C 69 % 1011,1 hPa 0,0 l/m 0 min 2 min 33 W/m 9,7 km/h (2 Bft) 95,74 %
12.07.2019 15:42 22,1 C 17,8 C 19,4 C 71 % 1011,1 hPa 0,0 l/m 0 min 2 min 30 W/m 16,1 km/h (3 Bft) 91,49 %
12.07.2019 15:44 21,9 C 16,7 C 17,2 C 74 % 1011,2 hPa 0,4 l/m 0 min 2 min 28 W/m 12,9 km/h (3 Bft) 95,74 %
12.07.2019 15:46 21,7 C 16,1 C 17,2 C 76 % 1011,1 hPa 0,2 l/m 0 min 2 min 30 W/m 16,1 km/h (3 Bft) 95,65 %
12.07.2019 15:48 21,4 C 16,1 C 16,7 C 78 % 1011,1 hPa 0,0 l/m 0 min 2 min 31 W/m 9,7 km/h (2 Bft) 93,62 %
12.07.2019 15:50 21,2 C 16,1 C 16,7 C 79 % 1011,1 hPa 0,0 l/m 0 min 2 min 35 W/m 6,4 km/h (2 Bft) 95,74 %
12.07.2019 15:52 21,0 C 16,1 C 16,7 C 80 % 1011,1 hPa 0,0 l/m 0 min 2 min 39 W/m 9,7 km/h (2 Bft) 95,74 %
12.07.2019 15:54 20,8 C 16,1 C 17,2 C 81 % 1011,2 hPa 0,2 l/m 0 min 2 min 46 W/m 6,4 km/h (2 Bft) 95,74 %
12.07.2019 15:56 20,6 C 16,1 C 16,7 C 81 % 1011,1 hPa 0,0 l/m 0 min 2 min 55 W/m 6,4 km/h (2 Bft) 95,74 %
12.07.2019 15:58 20,4 C 16,7 C 16,7 C 82 % 1011,2 hPa 0,0 l/m 0 min 2 min 67 W/m 6,4 km/h (2 Bft) 93,48 %
12.07.2019 16:00 20,3 C 16,7 C 16,7 C 83 % 1011,2 hPa 0,0 l/m 0 min 2 min 81 W/m 6,4 km/h (2 Bft) 97,87 %
12.07.2019 16:02 20,2 C 16,7 C 16,7 C 83 % 1011,1 hPa 0,0 l/m 0 min 2 min 97 W/m 6,4 km/h (2 Bft) 97,87 %
12.07.2019 16:04 20,1 C 16,1 C 16,7 C 84 % 1011,1 hPa 0,0 l/m 0 min 2 min 115 W/m 6,4 km/h (2 Bft) 97,87 %
12.07.2019 16:06 19,9 C 16,7 C 17,2 C 84 % 1011,1 hPa 0,0 l/m 0 min 2 min 146 W/m 6,4 km/h (2 Bft) 95,74 %
12.07.2019 16:08 19,9 C 16,7 C 17,2 C 84 % 1011,1 hPa 0,0 l/m 0 min 2 min 172 W/m 9,7 km/h (2 Bft) 97,87 %
12.07.2019 16:10 19,8 C 16,7 C 17,2 C 85 % 1011,1 hPa 0,0 l/m 0 min 2 min 200 W/m 6,4 km/h (2 Bft) 97,83 %
12.07.2019 16:12 19,7 C 17,2 C 17,2 C 85 % 1011,1 hPa 0,0 l/m 0 min 0 min 229 W/m 9,7 km/h (2 Bft) 97,87 %
12.07.2019 16:14 19,7 C 17,2 C 17,2 C 85 % 1011,0 hPa 0,0 l/m 0 min 0 min 254 W/m 6,4 km/h (2 Bft) 97,87 %
12.07.2019 16:16 19,6 C 17,2 C 17,2 C 86 % 1011,0 hPa 0,0 l/m 0 min 0 min 273 W/m 6,4 km/h (2 Bft) 95,74 %
12.07.2019 16:18 19,6 C 17,8 C 17,8 C 86 % 1011,1 hPa 0,0 l/m 0 min 0 min 303 W/m 9,7 km/h (2 Bft) 97,87 %
12.07.2019 16:20 19,6 C 18,3 C 18,3 C 87 % 1011,1 hPa 0,0 l/m 2 min 0 min 366 W/m 6,4 km/h (2 Bft) 97,87 %
12.07.2019 16:22 19,6 C 18,3 C 18,3 C 88 % 1011,1 hPa 0,0 l/m 0 min 0 min 344 W/m 6,4 km/h (2 Bft) 97,83 %
12.07.2019 16:24 19,6 C 18,9 C 18,9 C 88 % 1011,0 hPa 0,0 l/m 2 min 0 min 418 W/m 6,4 km/h (2 Bft) 97,87 %
12.07.2019 16:26 19,6 C 18,9 C 18,9 C 88 % 1011,0 hPa 0,0 l/m 2 min 0 min 600 W/m 6,4 km/h (2 Bft) 95,74 %
12.07.2019 16:28 19,7 C 19,4 C 19,4 C 89 % 1011,0 hPa 0,0 l/m 2 min 0 min 635 W/m 12,9 km/h (3 Bft) 100,00 %
12.07.2019 16:30 19,8 C 20,0 C 19,4 C 89 % 1011,0 hPa 0,0 l/m 2 min 0 min 582 W/m 9,7 km/h (2 Bft) 100,00 %
12.07.2019 16:32 19,9 C 20,6 C 19,4 C 90 % 1011,0 hPa 0,0 l/m 2 min 0 min 593 W/m 6,4 km/h (2 Bft) 100,00 %
12.07.2019 16:34 20,1 C 20,0 C 19,4 C 90 % 1011,0 hPa 0,0 l/m 2 min 0 min 408 W/m 9,7 km/h (2 Bft) 100,00 %
12.07.2019 16:36 20,2 C 20,6 C 19,4 C 90 % 1011,0 hPa 0,0 l/m 2 min 0 min 502 W/m 9,7 km/h (2 Bft) 100,00 %
12.07.2019 16:38 20,3 C 20,6 C 19,4 C 90 % 1011,0 hPa 0,0 l/m 2 min 0 min 641 W/m 9,7 km/h (2 Bft) 100,00 %
12.07.2019 16:40 20,4 C 21,1 C 20,0 C 90 % 1011,0 hPa 0,0 l/m 2 min 0 min 657 W/m 9,7 km/h (2 Bft) 95,74 %
12.07.2019 16:42 20,5 C 21,1 C 20,0 C 90 % 1011,0 hPa 0,0 l/m 2 min 0 min 493 W/m 16,1 km/h (3 Bft) 100,00 %
12.07.2019 16:44 20,6 C 21,1 C 20,0 C 90 % 1010,9 hPa 0,0 l/m 2 min 0 min 452 W/m 9,7 km/h (2 Bft) 100,00 %
12.07.2019 16:46 20,7 C 21,1 C 19,4 C 89 % 1011,0 hPa 0,0 l/m 2 min 0 min 433 W/m 12,9 km/h (3 Bft) 100,00 %
12.07.2019 16:48 20,8 C 20,6 C 19,4 C 88 % 1010,9 hPa 0,0 l/m 2 min 0 min 416 W/m 16,1 km/h (3 Bft) 100,00 %
12.07.2019 16:50 20,8 C 20,6 C 19,4 C 87 % 1010,9 hPa 0,0 l/m 2 min 0 min 426 W/m 12,9 km/h (3 Bft) 100,00 %
12.07.2019 16:52 20,9 C 20,6 C 19,4 C 86 % 1011,0 hPa 0,0 l/m 2 min 0 min 510 W/m 19,3 km/h (3 Bft) 100,00 %
12.07.2019 16:54 20,9 C 20,6 C 19,4 C 85 % 1011,0 hPa 0,0 l/m 2 min 0 min 353 W/m 12,9 km/h (3 Bft) 100,00 %
12.07.2019 16:56 21,1 C 21,1 C 19,4 C 85 % 1011,0 hPa 0,0 l/m 2 min 0 min 549 W/m 19,3 km/h (3 Bft) 100,00 %
12.07.2019 16:58 21,3 C 21,7 C 20,0 C 85 % 1011,0 hPa 0,0 l/m 2 min 0 min 747 W/m 9,7 km/h (2 Bft) 100,00 %
12.07.2019 17:00 21,4 C 21,1 C 19,4 C 83 % 1011,0 hPa 0,0 l/m 2 min 0 min 612 W/m 12,9 km/h (3 Bft) 100,00 %
12.07.2019 17:02 21,5 C 20,6 C 19,4 C 82 % 1011,1 hPa 0,0 l/m 2 min 0 min 404 W/m 12,9 km/h (3 Bft) 97,83 %
12.07.2019 17:04 21,6 C 20,6 C 19,4 C 81 % 1011,1 hPa 0,0 l/m 2 min 0 min 317 W/m 12,9 km/h (3 Bft) 100,00 %
12.07.2019 17:06 21,6 C 21,7 C 19,4 C 79 % 1011,1 hPa 0,0 l/m 2 min 0 min 412 W/m 9,7 km/h (2 Bft) 97,87 %
12.07.2019 17:08 21,7 C 22,2 C 19,4 C 79 % 1011,3 hPa 0,0 l/m 2 min 0 min 516 W/m 12,9 km/h (3 Bft) 100,00 %
12.07.2019 17:10 21,7 C 22,2 C 19,4 C 78 % 1011,4 hPa 0,0 l/m 2 min 0 min 502 W/m 16,1 km/h (3 Bft) 100,00 %
12.07.2019 17:12 21,7 C 22,2 C 19,4 C 78 % 1011,2 hPa 0,0 l/m 2 min 0 min 447 W/m 9,7 km/h (2 Bft) 100,00 %
12.07.2019 17:14 21,8 C 22,2 C 19,4 C 78 % 1011,2 hPa 0,0 l/m 2 min 0 min 408 W/m 9,7 km/h (2 Bft) 100,00 %
12.07.2019 17:16 21,8 C 21,7 C 20,0 C 77 % 1011,3 hPa 0,0 l/m 0 min 0 min 285 W/m 19,3 km/h (3 Bft) 100,00 %
12.07.2019 17:18 21,8 C 21,7 C 20,0 C 76 % 1011,3 hPa 0,0 l/m 0 min 0 min 217 W/m 9,7 km/h (2 Bft) 100,00 %
12.07.2019 17:20 21,7 C 21,1 C 20,0 C 76 % 1011,4 hPa 0,0 l/m 0 min 0 min 215 W/m 12,9 km/h (3 Bft) 100,00 %
12.07.2019 17:22 21,7 C 21,1 C 19,4 C 75 % 1011,4 hPa 0,0 l/m 0 min 0 min 182 W/m 9,7 km/h (2 Bft) 100,00 %
12.07.2019 17:24 21,6 C 20,6 C 19,4 C 74 % 1011,4 hPa 0,0 l/m 0 min 0 min 151 W/m 16,1 km/h (3 Bft) 100,00 %
12.07.2019 17:26 21,6 C 20,6 C 19,4 C 74 % 1011,4 hPa 0,0 l/m 0 min 0 min 140 W/m 12,9 km/h (3 Bft) 100,00 %
12.07.2019 17:28 21,5 C 20,0 C 19,4 C 73 % 1011,5 hPa 0,0 l/m 0 min 0 min 158 W/m 22,5 km/h (4 Bft) 97,87 %
12.07.2019 17:30 21,4 C 20,6 C 19,4 C 73 % 1011,4 hPa 0,0 l/m 0 min 0 min 192 W/m 19,3 km/h (3 Bft) 100,00 %
12.07.2019 17:32 21,3 C 20,6 C 19,4 C 73 % 1011,4 hPa 0,0 l/m 0 min 0 min 207 W/m 12,9 km/h (3 Bft) 100,00 %
12.07.2019 17:34 21,3 C 20,6 C 19,4 C 74 % 1011,4 hPa 0,0 l/m 0 min 0 min 176 W/m 6,4 km/h (2 Bft) 100,00 %
12.07.2019 17:36 21,3 C 20,6 C 19,4 C 75 % 1011,4 hPa 0,0 l/m 0 min 0 min 156 W/m 9,7 km/h (2 Bft) 100,00 %
12.07.2019 17:38 21,2 C 20,6 C 19,4 C 75 % 1011,4 hPa 0,0 l/m 0 min 0 min 154 W/m 16,1 km/h (3 Bft) 100,00 %
12.07.2019 17:40 21,2 C 21,1 C 19,4 C 75 % 1011,3 hPa 0,0 l/m 0 min 0 min 220 W/m 12,9 km/h (3 Bft) 100,00 %
12.07.2019 17:42 21,2 C 21,1 C 19,4 C 75 % 1011,3 hPa 0,0 l/m 0 min 0 min 204 W/m 9,7 km/h (2 Bft) 100,00 %
12.07.2019 17:44 21,1 C 21,1 C 19,4 C 75 % 1011,3 hPa 0,0 l/m 0 min 0 min 193 W/m 16,1 km/h (3 Bft) 100,00 %
12.07.2019 17:46 21,1 C 21,1 C 20,0 C 75 % 1011,4 hPa 0,0 l/m 0 min 0 min 188 W/m 12,9 km/h (3 Bft) 97,87 %
12.07.2019 17:48 21,1 C 21,1 C 20,0 C 75 % 1011,3 hPa 0,0 l/m 0 min 0 min 186 W/m 9,7 km/h (2 Bft) 100,00 %
12.07.2019 17:50 21,1 C 21,1 C 20,0 C 75 % 1011,3 hPa 0,0 l/m 0 min 0 min 187 W/m 12,9 km/h (3 Bft) 100,00 %
12.07.2019 17:52 21,0 C 20,6 C 20,0 C 75 % 1011,3 hPa 0,0 l/m 0 min 0 min 201 W/m 19,3 km/h (3 Bft) 97,87 %
12.07.2019 17:54 21,0 C 20,6 C 20,6 C 75 % 1011,3 hPa 0,0 l/m 0 min 0 min 228 W/m 12,9 km/h (3 Bft) 97,87 %
12.07.2019 17:56 21,0 C 21,1 C 20,6 C 75 % 1011,3 hPa 0,0 l/m 0 min 0 min 232 W/m 16,1 km/h (3 Bft) 100,00 %
12.07.2019 17:58 21,0 C 21,1 C 20,6 C 75 % 1011,3 hPa 0,0 l/m 0 min 0 min 257 W/m 12,9 km/h (3 Bft) 95,74 %
12.07.2019 18:00 21,0 C 21,1 C 20,6 C 75 % 1011,3 hPa 0,0 l/m 0 min 0 min 252 W/m 9,7 km/h (2 Bft) 95,65 %
12.07.2019 18:02 21,0 C 21,1 C 20,6 C 75 % 1011,3 hPa 0,0 l/m 2 min 0 min 282 W/m 12,9 km/h (3 Bft) 95,74 %
12.07.2019 18:04 21,0 C 21,7 C 20,6 C 76 % 1011,3 hPa 0,0 l/m 0 min 0 min 247 W/m 6,4 km/h (2 Bft) 97,87 %
12.07.2019 18:08 21,1 C 21,7 C 21,1 C 76 % 1011,3 hPa 0,0 l/m 0 min 0 min 219 W/m 12,9 km/h (3 Bft) 95,74 %
12.07.2019 18:10 21,1 C 21,7 C 21,1 C 76 % 1011,2 hPa 0,0 l/m 2 min 0 min 282 W/m 6,4 km/h (2 Bft) 95,74 %
12.07.2019 18:12 21,2 C 21,7 C 21,1 C 76 % 1011,3 hPa 0,0 l/m 2 min 0 min 348 W/m 12,9 km/h (3 Bft) 97,83 %
12.07.2019 18:14 21,2 C 22,2 C 21,1 C 75 % 1011,3 hPa 0,0 l/m 2 min 0 min 460 W/m 16,1 km/h (3 Bft) 97,87 %
12.07.2019 18:16 21,2 C 21,7 C 21,1 C 75 % 1011,3 hPa 0,0 l/m 2 min 0 min 280 W/m 9,7 km/h (2 Bft) 97,87 %
12.07.2019 18:18 21,3 C 21,7 C 21,1 C 75 % 1011,3 hPa 0,0 l/m 0 min 0 min 156 W/m 22,5 km/h (4 Bft) 91,49 %
12.07.2019 18:20 21,2 C 21,1 C 20,6 C 75 % 1011,3 hPa 0,0 l/m 0 min 0 min 108 W/m 16,1 km/h (3 Bft) 93,62 %
12.07.2019 18:22 21,2 C 21,1 C 20,6 C 75 % 1011,2 hPa 0,0 l/m 0 min 0 min 78 W/m 12,9 km/h (3 Bft) 93,48 %
12.07.2019 18:24 21,2 C 20,6 C 20,0 C 73 % 1011,2 hPa 0,0 l/m 0 min 0 min 67 W/m 19,3 km/h (3 Bft) 93,62 %
12.07.2019 18:26 21,1 C 20,0 C 20,0 C 74 % 1011,3 hPa 0,0 l/m 0 min 0 min 80 W/m 9,7 km/h (2 Bft) 93,62 %
12.07.2019 18:28 21,1 C 20,0 C 20,0 C 73 % 1011,4 hPa 0,0 l/m 0 min 0 min 105 W/m 16,1 km/h (3 Bft) 93,62 %
12.07.2019 18:30 21,0 C 20,0 C 20,0 C 74 % 1011,4 hPa 0,0 l/m 0 min 0 min 162 W/m 16,1 km/h (3 Bft) 93,62 %
12.07.2019 18:32 21,0 C 20,6 C 20,0 C 74 % 1011,4 hPa 0,0 l/m 0 min 0 min 218 W/m 12,9 km/h (3 Bft) 93,62 %
12.07.2019 18:34 21,0 C 20,6 C 20,6 C 74 % 1011,4 hPa 0,0 l/m 2 min 0 min 248 W/m 9,7 km/h (2 Bft) 91,30 %
12.07.2019 18:36 21,0 C 21,1 C 20,6 C 75 % 1011,4 hPa 0,0 l/m 2 min 0 min 227 W/m 6,4 km/h (2 Bft) 95,74 %
12.07.2019 18:38 21,0 C 21,1 C 20,6 C 74 % 1011,5 hPa 0,0 l/m 0 min 0 min 205 W/m 16,1 km/h (3 Bft) 93,62 %
12.07.2019 18:40 21,0 C 21,1 C 20,6 C 74 % 1011,5 hPa 0,0 l/m 2 min 0 min 215 W/m 19,3 km/h (3 Bft) 93,62 %
12.07.2019 18:42 20,9 C 21,1 C 20,6 C 74 % 1011,4 hPa 0,0 l/m 2 min 0 min 294 W/m 12,9 km/h (3 Bft) 93,62 %
12.07.2019 18:44 21,0 C 21,1 C 20,6 C 74 % 1011,5 hPa 0,0 l/m 2 min 0 min 282 W/m 12,9 km/h (3 Bft) 93,62 %
12.07.2019 18:46 21,0 C 21,1 C 20,6 C 74 % 1011,6 hPa 0,0 l/m 2 min 0 min 243 W/m 9,7 km/h (2 Bft) 93,48 %
12.07.2019 18:48 21,0 C 21,1 C 20,6 C 75 % 1011,7 hPa 0,0 l/m 0 min 0 min 180 W/m 9,7 km/h (2 Bft) 93,62 %
12.07.2019 18:50 21,0 C 20,6 C 20,6 C 74 % 1011,7 hPa 0,0 l/m 0 min 0 min 121 W/m 9,7 km/h (2 Bft) 93,62 %
12.07.2019 18:52 21,0 C 20,6 C 20,0 C 74 % 1011,8 hPa 0,0 l/m 0 min 0 min 135 W/m 12,9 km/h (3 Bft) 93,62 %
12.07.2019 18:54 20,9 C 20,6 C 20,0 C 74 % 1011,8 hPa 0,0 l/m 0 min 0 min 178 W/m 12,9 km/h (3 Bft) 95,74 %
12.07.2019 18:56 20,9 C 20,0 C 20,0 C 74 % 1011,8 hPa 0,0 l/m 0 min 0 min 184 W/m 12,9 km/h (3 Bft) 93,62 %
12.07.2019 18:58 20,8 C 20,0 C 20,0 C 75 % 1011,8 hPa 0,0 l/m 0 min 0 min 148 W/m 9,7 km/h (2 Bft) 95,65 %
12.07.2019 19:00 20,8 C 20,0 C 19,4 C 75 % 1011,9 hPa 0,0 l/m 0 min 0 min 113 W/m 16,1 km/h (3 Bft) 95,74 %
12.07.2019 19:02 20,7 C 19,4 C 19,4 C 75 % 1011,9 hPa 0,0 l/m 0 min 0 min 70 W/m 16,1 km/h (3 Bft) 91,49 %
12.07.2019 19:04 20,6 C 19,4 C 18,9 C 74 % 1012,0 hPa 0,0 l/m 0 min 0 min 60 W/m 19,3 km/h (3 Bft) 95,74 %
12.07.2019 19:06 20,5 C 18,9 C 18,9 C 73 % 1012,0 hPa 0,0 l/m 0 min 0 min 68 W/m 19,3 km/h (3 Bft) 95,74 %
12.07.2019 19:08 20,4 C 18,9 C 18,9 C 73 % 1012,0 hPa 0,0 l/m 0 min 0 min 81 W/m 16,1 km/h (3 Bft) 95,74 %
12.07.2019 19:10 20,3 C 18,9 C 18,9 C 73 % 1011,9 hPa 0,0 l/m 0 min 0 min 98 W/m 16,1 km/h (3 Bft) 97,83 %
12.07.2019 19:12 20,2 C 18,9 C 18,9 C 73 % 1011,9 hPa 0,0 l/m 0 min 0 min 137 W/m 6,4 km/h (2 Bft) 97,87 %
12.07.2019 19:14 20,1 C 19,4 C 18,9 C 74 % 1011,9 hPa 0,0 l/m 0 min 0 min 166 W/m 9,7 km/h (2 Bft) 97,87 %
12.07.2019 19:16 20,1 C 19,4 C 18,9 C 73 % 1012,0 hPa 0,0 l/m 2 min 0 min 244 W/m 9,7 km/h (2 Bft) 97,87 %
12.07.2019 19:18 20,1 C 20,0 C 19,4 C 74 % 1012,0 hPa 0,0 l/m 2 min 0 min 245 W/m 6,4 km/h (2 Bft) 100,00 %
12.07.2019 19:20 20,1 C 20,6 C 19,4 C 74 % 1012,0 hPa 0,0 l/m 2 min 0 min 336 W/m 22,5 km/h (4 Bft) 100,00 %
12.07.2019 19:22 20,1 C 20,6 C 19,4 C 73 % 1012,0 hPa 0,0 l/m 2 min 0 min 361 W/m 16,1 km/h (3 Bft) 100,00 %
12.07.2019 19:24 20,2 C 21,1 C 19,4 C 74 % 1012,0 hPa 0,0 l/m 2 min 0 min 298 W/m 12,9 km/h (3 Bft) 100,00 %
12.07.2019 19:26 20,2 C 21,1 C 19,4 C 74 % 1012,1 hPa 0,0 l/m 2 min 0 min 280 W/m 9,7 km/h (2 Bft) 100,00 %
12.07.2019 19:28 20,2 C 20,6 C 19,4 C 74 % 1012,1 hPa 0,0 l/m 2 min 0 min 274 W/m 12,9 km/h (3 Bft) 100,00 %
12.07.2019 19:30 20,3 C 20,6 C 19,4 C 74 % 1012,1 hPa 0,0 l/m 2 min 0 min 220 W/m 22,5 km/h (4 Bft) 100,00 %
12.07.2019 19:32 20,3 C 20,0 C 19,4 C 73 % 1012,2 hPa 0,0 l/m 2 min 0 min 247 W/m 16,1 km/h (3 Bft) 100,00 %
12.07.2019 19:34 20,3 C 20,0 C 18,9 C 73 % 1012,2 hPa 0,0 l/m 2 min 0 min 241 W/m 16,1 km/h (3 Bft) 97,87 %
12.07.2019 19:36 20,2 C 20,0 C 18,9 C 73 % 1012,1 hPa 0,0 l/m 2 min 0 min 242 W/m 12,9 km/h (3 Bft) 100,00 %
12.07.2019 19:38 20,2 C 19,4 C 18,9 C 73 % 1012,1 hPa 0,0 l/m 2 min 0 min 156 W/m 12,9 km/h (3 Bft) 100,00 %
12.07.2019 19:40 20,2 C 19,4 C 18,9 C 73 % 1012,2 hPa 0,0 l/m 0 min 0 min 109 W/m 22,5 km/h (4 Bft) 100,00 %
12.07.2019 19:42 20,1 C 18,9 C 18,9 C 73 % 1012,2 hPa 0,0 l/m 0 min 0 min 98 W/m 12,9 km/h (3 Bft) 100,00 %
12.07.2019 19:44 20,1 C 18,9 C 18,3 C 74 % 1012,3 hPa 0,0 l/m 0 min 0 min 98 W/m 12,9 km/h (3 Bft) 100,00 %
12.07.2019 19:46 20,0 C 18,9 C 18,3 C 73 % 1012,3 hPa 0,0 l/m 0 min 0 min 100 W/m 16,1 km/h (3 Bft) 100,00 %
12.07.2019 19:48 19,9 C 18,9 C 18,3 C 74 % 1012,4 hPa 0,0 l/m 0 min 0 min 100 W/m 16,1 km/h (3 Bft) 100,00 %
12.07.2019 19:50 19,9 C 18,9 C 18,3 C 75 % 1012,4 hPa 0,0 l/m 0 min 0 min 92 W/m 6,4 km/h (2 Bft) 100,00 %
12.07.2019 19:52 19,9 C 18,9 C 18,3 C 74 % 1012,3 hPa 0,0 l/m 0 min 0 min 88 W/m 19,3 km/h (3 Bft) 100,00 %
12.07.2019 19:53 19,8 C 18,9 C 18,3 C 75 % 1012,3 hPa 0,0 l/m 0 min 0 min 82 W/m 9,7 km/h (2 Bft) 100,00 %
12.07.2019 19:56 19,7 C 18,3 C 18,3 C 75 % 1012,3 hPa 0,0 l/m 0 min 0 min 79 W/m 16,1 km/h (3 Bft) 100,00 %
12.07.2019 19:58 19,7 C 18,3 C 18,3 C 76 % 1012,3 hPa 0,0 l/m 0 min 0 min 77 W/m 16,1 km/h (3 Bft) 97,87 %
12.07.2019 20:00 19,6 C 18,3 C 18,3 C 76 % 1012,3 hPa 0,0 l/m 0 min 0 min 75 W/m 16,1 km/h (3 Bft) 97,87 %
12.07.2019 20:02 19,6 C 18,3 C 18,3 C 76 % 1012,3 hPa 0,0 l/m 0 min 0 min 71 W/m 6,4 km/h (2 Bft) 100,00 %
12.07.2019 20:04 19,6 C 18,3 C 18,3 C 76 % 1012,3 hPa 0,0 l/m 0 min 0 min 59 W/m 3,2 km/h (1 Bft) 100,00 %
12.07.2019 20:08 19,5 C 18,3 C 17,8 C 77 % 1012,3 hPa 0,0 l/m 0 min 0 min 52 W/m 6,4 km/h (2 Bft) 100,00 %
12.07.2019 20:10 19,4 C 18,3 C 17,8 C 77 % 1012,4 hPa 0,0 l/m 0 min 0 min 53 W/m 19,3 km/h (3 Bft) 100,00 %
12.07.2019 20:12 19,4 C 18,3 C 17,8 C 77 % 1012,4 hPa 0,0 l/m 0 min 0 min 54 W/m 9,7 km/h (2 Bft) 100,00 %
12.07.2019 20:14 19,4 C 18,3 C 18,3 C 77 % 1012,4 hPa 0,0 l/m 0 min 0 min 50 W/m 9,7 km/h (2 Bft) 100,00 %
12.07.2019 20:16 19,4 C 18,3 C 18,3 C 77 % 1012,4 hPa 0,0 l/m 0 min 0 min 46 W/m 9,7 km/h (2 Bft) 97,87 %
12.07.2019 20:18 19,3 C 18,3 C 18,3 C 77 % 1012,4 hPa 0,0 l/m 0 min 0 min 47 W/m 6,4 km/h (2 Bft) 100,00 %
12.07.2019 20:20 19,3 C 18,3 C 18,3 C 78 % 1012,5 hPa 0,0 l/m 0 min 0 min 43 W/m 3,2 km/h (1 Bft) 100,00 %
12.07.2019 20:22 19,3 C 18,3 C 18,3 C 78 % 1012,4 hPa 0,0 l/m 0 min 0 min 34 W/m 3,2 km/h (1 Bft) 100,00 %
12.07.2019 20:24 19,3 C 18,3 C 17,8 C 78 % 1012,5 hPa 0,0 l/m 0 min 0 min 30 W/m 6,4 km/h (2 Bft) 100,00 %
12.07.2019 20:26 19,3 C 18,3 C 17,8 C 78 % 1012,5 hPa 0,0 l/m 0 min 0 min 26 W/m 3,2 km/h (1 Bft) 100,00 %
12.07.2019 20:28 19,3 C 18,3 C 17,8 C 78 % 1012,5 hPa 0,0 l/m 0 min 0 min 26 W/m 3,2 km/h (1 Bft) 100,00 %
12.07.2019 20:30 19,3 C 18,3 C 17,8 C 78 % 1012,6 hPa 0,0 l/m 0 min 0 min 24 W/m 3,2 km/h (1 Bft) 100,00 %
12.07.2019 20:32 19,3 C 18,3 C 17,8 C 78 % 1012,6 hPa 0,0 l/m 0 min 0 min 23 W/m 6,4 km/h (2 Bft) 100,00 %
12.07.2019 20:34 19,2 C 18,3 C 17,8 C 78 % 1012,7 hPa 0,0 l/m 0 min 0 min 24 W/m 3,2 km/h (1 Bft) 100,00 %
12.07.2019 20:36 19,2 C 18,3 C 17,8 C 79 % 1012,6 hPa 0,0 l/m 0 min 0 min 20 W/m 9,7 km/h (2 Bft) 100,00 %
12.07.2019 20:38 19,2 C 18,3 C 17,8 C 79 % 1012,6 hPa 0,0 l/m 0 min 0 min 16 W/m 6,4 km/h (2 Bft) 100,00 %
12.07.2019 20:40 19,2 C 17,8 C 17,8 C 79 % 1012,6 hPa 0,0 l/m 0 min 0 min 13 W/m 6,4 km/h (2 Bft) 100,00 %
12.07.2019 20:42 19,2 C 17,8 C 17,8 C 79 % 1012,6 hPa 0,0 l/m 0 min 0 min 8 W/m 9,7 km/h (2 Bft) 97,83 %
12.07.2019 20:44 19,2 C 17,8 C 17,8 C 79 % 1012,6 hPa 0,0 l/m 0 min 0 min 8 W/m 6,4 km/h (2 Bft) 100,00 %
12.07.2019 20:46 19,2 C 17,8 C 17,8 C 79 % 1012,6 hPa 0,0 l/m 0 min 0 min 9 W/m 3,2 km/h (1 Bft) 100,00 %
12.07.2019 20:48 19,1 C 17,8 C 17,8 C 79 % 1012,6 hPa 0,0 l/m 0 min 0 min 7 W/m 3,2 km/h (1 Bft) 100,00 %
12.07.2019 20:50 19,1 C 17,8 C 17,8 C 80 % 1012,6 hPa 0,0 l/m 0 min 2 min 7 W/m 6,4 km/h (2 Bft) 95,74 %
12.07.2019 20:52 19,1 C 17,8 C 17,2 C 80 % 1012,7 hPa 0,0 l/m 0 min 2 min 5 W/m 3,2 km/h (1 Bft) 100,00 %
12.07.2019 20:54 19,1 C 16,7 C 16,1 C 81 % 1012,8 hPa 0,4 l/m 0 min 2 min 0 W/m 6,4 km/h (2 Bft) 97,83 %
12.07.2019 20:56 19,1 C 16,1 C 16,1 C 82 % 1013,0 hPa 1,2 l/m 0 min 2 min 0 W/m 6,4 km/h (2 Bft) 100,00 %
12.07.2019 20:58 19,1 C 15,6 C 15,6 C 84 % 1013,2 hPa 0,6 l/m 0 min 2 min 0 W/m 9,7 km/h (2 Bft) 97,87 %
12.07.2019 21:00 19,1 C 15,6 C 15,6 C 85 % 1013,3 hPa 1,4 l/m 0 min 2 min 0 W/m 9,7 km/h (2 Bft) 97,87 %
12.07.2019 21:02 18,9 C 15,6 C 15,0 C 85 % 1013,2 hPa 0,8 l/m 0 min 2 min 0 W/m 6,4 km/h (2 Bft) 95,74 %
12.07.2019 21:04 18,8 C 15,0 C 15,0 C 86 % 1013,2 hPa 1,0 l/m 0 min 2 min 0 W/m 6,4 km/h (2 Bft) 95,74 %
12.07.2019 21:08 18,6 C 15,0 C 15,0 C 86 % 1013,1 hPa 1,0 l/m 0 min 4 min 0 W/m 3,2 km/h (1 Bft) 96,77 %
12.07.2019 21:10 18,4 C 15,0 C 15,0 C 86 % 1013,3 hPa 0,2 l/m 0 min 2 min 0 W/m 6,4 km/h (2 Bft) 93,62 %
12.07.2019 21:12 18,3 C 14,4 C 14,4 C 86 % 1013,3 hPa 0,2 l/m 0 min 2 min 0 W/m 3,2 km/h (1 Bft) 95,74 %
12.07.2019 21:14 18,2 C 14,4 C 15,0 C 87 % 1013,3 hPa 0,0 l/m 0 min 2 min 0 W/m 9,7 km/h (2 Bft) 91,49 %
12.07.2019 21:16 18,1 C 14,4 C 14,4 C 87 % 1013,4 hPa 0,2 l/m 0 min 2 min 0 W/m 3,2 km/h (1 Bft) 95,74 %
12.07.2019 21:18 18,0 C 15,0 C 15,0 C 87 % 1013,4 hPa 0,0 l/m 0 min 2 min 0 W/m 3,2 km/h (1 Bft) 95,65 %
12.07.2019 21:20 17,9 C 15,0 C 15,0 C 87 % 1013,3 hPa 0,0 l/m 0 min 2 min 0 W/m 0,0 km/h (0 Bft) 95,74 %
12.07.2019 21:22 17,8 C 15,0 C 15,0 C 88 % 1013,4 hPa 0,0 l/m 0 min 2 min 4 W/m 0,0 km/h (0 Bft) 91,49 %
12.07.2019 21:24 17,8 C 15,0 C 15,0 C 88 % 1013,4 hPa 0,2 l/m 0 min 2 min 0 W/m 0,0 km/h (0 Bft) 95,74 %
12.07.2019 21:26 17,7 C 14,4 C 15,0 C 88 % 1013,4 hPa 0,0 l/m 0 min 0 min 0 W/m 0,0 km/h (0 Bft) 93,62 %
12.07.2019 21:28 17,6 C 14,4 C 15,0 C 89 % 1013,4 hPa 0,0 l/m 0 min 0 min 0 W/m 0,0 km/h (0 Bft) 93,62 %
12.07.2019 21:30 17,6 C 14,4 C 15,0 C 89 % 1013,4 hPa 0,0 l/m 0 min 0 min 2 W/m 0,0 km/h (0 Bft) 93,48 %
12.07.2019 21:32 17,4 C 14,4 C 15,0 C 89 % 1013,4 hPa 0,0 l/m 0 min 0 min 0 W/m 0,0 km/h (0 Bft) 93,62 %
12.07.2019 21:34 17,4 C 14,4 C 15,0 C 89 % 1013,5 hPa 0,0 l/m 0 min 0 min 0 W/m 0,0 km/h (0 Bft) 95,74 %
12.07.2019 21:36 17,4 C 14,4 C 15,0 C 89 % 1013,5 hPa 0,0 l/m 0 min 0 min 0 W/m 0,0 km/h (0 Bft) 89,36 %
12.07.2019 21:38 17,3 C 14,4 C 15,0 C 90 % 1013,5 hPa 0,0 l/m 0 min 0 min 0 W/m 0,0 km/h (0 Bft) 93,62 %
12.07.2019 21:40 17,2 C 15,0 C 15,0 C 90 % 1013,5 hPa 0,0 l/m 0 min 0 min 0 W/m 0,0 km/h (0 Bft) 93,48 %
12.07.2019 21:42 17,2 C 15,0 C 15,0 C 90 % 1013,5 hPa 0,0 l/m 0 min 0 min 0 W/m 0,0 km/h (0 Bft) 93,62 %
12.07.2019 21:44 17,2 C 15,0 C 15,0 C 90 % 1013,6 hPa 0,0 l/m 0 min 0 min 0 W/m 0,0 km/h (0 Bft) 93,62 %
12.07.2019 21:46 17,1 C 15,0 C 15,0 C 90 % 1013,4 hPa 0,0 l/m 0 min 0 min 0 W/m 3,2 km/h (1 Bft) 89,36 %
12.07.2019 21:48 17,1 C 15,0 C 15,0 C 90 % 1013,6 hPa 0,0 l/m 0 min 0 min 0 W/m 0,0 km/h (0 Bft) 93,62 %
12.07.2019 21:50 17,0 C 15,0 C 15,0 C 90 % 1013,6 hPa 0,0 l/m 0 min 0 min 0 W/m 0,0 km/h (0 Bft) 93,62 %
12.07.2019 21:52 17,0 C 15,0 C 15,0 C 90 % 1013,7 hPa 0,0 l/m 0 min 0 min 0 W/m 0,0 km/h (0 Bft) 95,74 %
12.07.2019 21:54 16,9 C 15,0 C 15,0 C 90 % 1013,7 hPa 0,0 l/m 0 min 0 min 0 W/m 0,0 km/h (0 Bft) 93,48 %
12.07.2019 21:56 16,9 C 15,0 C 15,0 C 91 % 1013,7 hPa 0,0 l/m 0 min 2 min 0 W/m 0,0 km/h (0 Bft) 93,62 %
12.07.2019 21:58 16,9 C 15,0 C 15,0 C 91 % 1013,8 hPa 0,0 l/m 0 min 0 min 0 W/m 0,0 km/h (0 Bft) 93,62 %
12.07.2019 22:00 16,8 C 15,0 C 15,0 C 91 % 1013,7 hPa 0,0 l/m 0 min 0 min 0 W/m 0,0 km/h (0 Bft) 95,74 %
12.07.2019 22:02 16,8 C 15,0 C 15,0 C 91 % 1013,8 hPa 0,0 l/m 0 min 0 min 0 W/m 0,0 km/h (0 Bft) 91,49 %
12.07.2019 22:04 16,8 C 15,0 C 15,0 C 91 % 1013,9 hPa 0,0 l/m 0 min 0 min 0 W/m 0,0 km/h (0 Bft) 95,65 %
12.07.2019 22:08 16,7 C 15,0 C 15,0 C 91 % 1013,9 hPa 0,0 l/m 0 min 0 min 0 W/m 3,2 km/h (1 Bft) 93,62 %
12.07.2019 22:10 16,7 C 15,0 C 15,0 C 91 % 1013,9 hPa 0,0 l/m 0 min 0 min 0 W/m 0,0 km/h (0 Bft) 95,74 %
12.07.2019 22:12 16,7 C 15,0 C 15,0 C 91 % 1013,9 hPa 0,0 l/m 0 min 0 min 0 W/m 0,0 km/h (0 Bft) 93,62 %
12.07.2019 22:14 16,7 C 15,0 C 15,0 C 91 % 1014,0 hPa 0,0 l/m 0 min 0 min 0 W/m 0,0 km/h (0 Bft) 97,87 %
12.07.2019 22:16 16,6 C 15,0 C 15,0 C 91 % 1014,0 hPa 0,0 l/m 0 min 0 min 0 W/m 0,0 km/h (0 Bft) 95,65 %
12.07.2019 22:18 16,6 C 15,0 C 15,0 C 92 % 1014,0 hPa 0,0 l/m 0 min 0 min 0 W/m 0,0 km/h (0 Bft) 97,87 %
12.07.2019 22:20 16,6 C 15,0 C 15,0 C 92 % 1014,1 hPa 0,0 l/m 0 min 0 min 0 W/m 0,0 km/h (0 Bft) 95,74 %
12.07.2019 22:22 16,6 C 15,0 C 15,0 C 92 % 1014,1 hPa 0,0 l/m 0 min 0 min 0 W/m 0,0 km/h (0 Bft) 97,87 %
12.07.2019 22:24 16,6 C 15,0 C 15,0 C 92 % 1014,2 hPa 0,0 l/m 0 min 0 min 0 W/m 0,0 km/h (0 Bft) 100,00 %
12.07.2019 22:26 16,6 C 15,0 C 15,0 C 92 % 1014,2 hPa 0,0 l/m 0 min 2 min 0 W/m 0,0 km/h (0 Bft) 100,00 %
12.07.2019 22:28 16,6 C 15,0 C 15,0 C 92 % 1014,2 hPa 0,0 l/m 0 min 2 min 0 W/m 0,0 km/h (0 Bft) 100,00 %
12.07.2019 22:30 16,5 C 15,0 C 15,0 C 92 % 1014,2 hPa 0,0 l/m 0 min 0 min 0 W/m 0,0 km/h (0 Bft) 97,87 %
12.07.2019 22:32 16,5 C 15,0 C 15,0 C 92 % 1014,2 hPa 0,0 l/m 0 min 0 min 0 W/m 0,0 km/h (0 Bft) 97,87 %
12.07.2019 22:34 16,5 C 15,0 C 15,0 C 92 % 1014,2 hPa 0,0 l/m 0 min 0 min 0 W/m 0,0 km/h (0 Bft) 100,00 %
12.07.2019 22:36 16,5 C 15,0 C 15,0 C 92 % 1014,2 hPa 0,0 l/m 0 min 0 min 0 W/m 0,0 km/h (0 Bft) 100,00 %
12.07.2019 22:38 16,4 C 15,0 C 15,0 C 93 % 1014,3 hPa 0,0 l/m 0 min 0 min 0 W/m 0,0 km/h (0 Bft) 100,00 %
12.07.2019 22:40 16,4 C 15,0 C 15,0 C 92 % 1014,3 hPa 0,0 l/m 0 min 0 min 0 W/m 0,0 km/h (0 Bft) 100,00 %
12.07.2019 22:42 16,4 C 15,0 C 15,0 C 92 % 1014,3 hPa 0,0 l/m 0 min 0 min 0 W/m 0,0 km/h (0 Bft) 100,00 %
12.07.2019 22:44 16,4 C 15,0 C 15,0 C 93 % 1014,3 hPa 0,0 l/m 0 min 0 min 0 W/m 0,0 km/h (0 Bft) 100,00 %
12.07.2019 22:46 16,4 C 15,0 C 15,0 C 93 % 1014,3 hPa 0,0 l/m 0 min 0 min 0 W/m 0,0 km/h (0 Bft) 97,87 %
12.07.2019 22:48 16,4 C 15,0 C 15,0 C 93 % 1014,4 hPa 0,0 l/m 0 min 0 min 0 W/m 0,0 km/h (0 Bft) 100,00 %
12.07.2019 22:50 16,4 C 15,0 C 15,0 C 93 % 1014,4 hPa 0,0 l/m 0 min 0 min 0 W/m 0,0 km/h (0 Bft) 100,00 %
12.07.2019 22:52 16,4 C 15,0 C 15,0 C 93 % 1014,4 hPa 0,0 l/m 0 min 0 min 0 W/m 0,0 km/h (0 Bft) 100,00 %
12.07.2019 22:54 16,4 C 15,0 C 15,0 C 93 % 1014,4 hPa 0,0 l/m 0 min 0 min 0 W/m 3,2 km/h (1 Bft) 100,00 %
12.07.2019 22:56 16,4 C 15,0 C 15,0 C 93 % 1014,4 hPa 0,0 l/m 0 min 0 min 0 W/m 0,0 km/h (0 Bft) 100,00 %
12.07.2019 22:58 16,4 C 15,0 C 15,0 C 93 % 1014,4 hPa 0,0 l/m 0 min 0 min 0 W/m 3,2 km/h (1 Bft) 100,00 %
12.07.2019 23:00 16,4 C 15,0 C 15,0 C 93 % 1014,4 hPa 0,0 l/m 0 min 0 min 0 W/m 6,4 km/h (2 Bft) 97,87 %
12.07.2019 23:02 16,4 C 15,0 C 15,0 C 93 % 1014,5 hPa 0,0 l/m 0 min 0 min 0 W/m 3,2 km/h (1 Bft) 97,83 %
12.07.2019 23:04 16,4 C 15,0 C 15,0 C 93 % 1014,4 hPa 0,0 l/m 0 min 0 min 0 W/m 0,0 km/h (0 Bft) 100,00 %
12.07.2019 23:08 16,4 C 15,0 C 15,0 C 94 % 1014,5 hPa 0,0 l/m 0 min 0 min 0 W/m 0,0 km/h (0 Bft) 98,94 %
12.07.2019 23:10 16,4 C 15,0 C 15,0 C 94 % 1014,4 hPa 0,0 l/m 0 min 0 min 0 W/m 0,0 km/h (0 Bft) 100,00 %
12.07.2019 23:12 16,4 C 15,0 C 15,0 C 94 % 1014,5 hPa 0,0 l/m 0 min 0 min 0 W/m 0,0 km/h (0 Bft) 95,74 %
12.07.2019 23:14 16,4 C 15,0 C 15,0 C 94 % 1014,4 hPa 0,0 l/m 0 min 0 min 0 W/m 0,0 km/h (0 Bft) 100,00 %
12.07.2019 23:16 16,4 C 15,0 C 15,0 C 94 % 1014,4 hPa 0,0 l/m 0 min 0 min 0 W/m 0,0 km/h (0 Bft) 97,87 %
12.07.2019 23:18 16,4 C 15,0 C 15,0 C 94 % 1014,4 hPa 0,0 l/m 0 min 0 min 0 W/m 0,0 km/h (0 Bft) 100,00 %
12.07.2019 23:20 16,4 C 15,0 C 15,0 C 94 % 1014,4 hPa 0,0 l/m 0 min 0 min 0 W/m 3,2 km/h (1 Bft) 100,00 %
12.07.2019 23:22 16,4 C 15,0 C 15,0 C 94 % 1014,5 hPa 0,0 l/m 0 min 0 min 0 W/m 0,0 km/h (0 Bft) 97,87 %
12.07.2019 23:24 16,4 C 15,0 C 15,0 C 94 % 1014,5 hPa 0,0 l/m 0 min 0 min 0 W/m 0,0 km/h (0 Bft) 97,87 %
12.07.2019 23:26 16,4 C 15,0 C 15,0 C 94 % 1014,5 hPa 0,0 l/m 0 min 0 min 0 W/m 3,2 km/h (1 Bft) 100,00 %
12.07.2019 23:28 16,4 C 15,0 C 15,0 C 94 % 1014,5 hPa 0,0 l/m 0 min 0 min 0 W/m 6,4 km/h (2 Bft) 100,00 %
12.07.2019 23:30 16,4 C 14,4 C 15,0 C 94 % 1014,6 hPa 0,0 l/m 0 min 0 min 0 W/m 3,2 km/h (1 Bft) 97,87 %
12.07.2019 23:32 16,4 C 14,4 C 14,4 C 94 % 1014,5 hPa 0,0 l/m 0 min 0 min 0 W/m 3,2 km/h (1 Bft) 100,00 %
12.07.2019 23:34 16,4 C 14,4 C 14,4 C 94 % 1014,5 hPa 0,0 l/m 0 min 0 min 0 W/m 3,2 km/h (1 Bft) 100,00 %
12.07.2019 23:36 16,3 C 14,4 C 15,0 C 95 % 1014,5 hPa 0,0 l/m 0 min 0 min 0 W/m 3,2 km/h (1 Bft) 100,00 %
12.07.2019 23:38 16,3 C 14,4 C 14,4 C 95 % 1014,6 hPa 0,0 l/m 0 min 0 min 0 W/m 3,2 km/h (1 Bft) 100,00 %
12.07.2019 23:40 16,3 C 14,4 C 14,4 C 95 % 1014,5 hPa 0,0 l/m 0 min 0 min 0 W/m 3,2 km/h (1 Bft) 97,87 %
12.07.2019 23:42 16,3 C 14,4 C 14,4 C 95 % 1014,6 hPa 0,0 l/m 0 min 0 min 0 W/m 0,0 km/h (0 Bft) 100,00 %
12.07.2019 23:44 16,3 C 14,4 C 14,4 C 95 % 1014,6 hPa 0,0 l/m 0 min 0 min 0 W/m 3,2 km/h (1 Bft) 100,00 %
12.07.2019 23:46 16,2 C 14,4 C 14,4 C 95 % 1014,7 hPa 0,0 l/m 0 min 0 min 0 W/m 3,2 km/h (1 Bft) 100,00 %
12.07.2019 23:48 16,2 C 14,4 C 14,4 C 95 % 1014,6 hPa 0,0 l/m 0 min 0 min 0 W/m 3,2 km/h (1 Bft) 100,00 %
12.07.2019 23:50 16,2 C 14,4 C 14,4 C 95 % 1014,7 hPa 0,0 l/m 0 min 0 min 0 W/m 3,2 km/h (1 Bft) 95,74 %
12.07.2019 23:52 16,2 C 14,4 C 14,4 C 95 % 1014,6 hPa 0,0 l/m 0 min 0 min 0 W/m 3,2 km/h (1 Bft) 97,87 %
12.07.2019 23:54 16,1 C 14,4 C 14,4 C 95 % 1014,6 hPa 0,0 l/m 0 min 0 min 0 W/m 0,0 km/h (0 Bft) 97,87 %
12.07.2019 23:56 16,1 C 14,4 C 14,4 C 95 % 1014,6 hPa 0,0 l/m 0 min 0 min 0 W/m 6,4 km/h (2 Bft) 97,87 %
12.07.2019 23:58 16,1 C 14,4 C 14,4 C 95 % 1014,6 hPa 0,0 l/m 0 min 0 min 0 W/m 0,0 km/h (0 Bft) 97,87 %
_ Min-Zeit 05:58 05:22 05:18 13:34 13:18 - - - - 00:00 08:26
Minimum _ 14,9 C 13,3 C 12,8 C 52 % 1010,2 hPa - - - - 0,0 km/h (0 Bft) 89,36 %
_ Max-Zeit 13:52 13:18 13:18 23:36 23:46 21:00 12:08 21:08 13:36 14:36 00:22
Maximum _ 27,5 C 33,9 C 33,9 C 95 % 1014,7 hPa 1,4 l/m 4 min 4 min 1000 W/m 22,5 km/h
W-NW (4 Bft)
100,00 %
Durchschnitt _ 19,5 C 19,6 C 18,9 C 78 % 1011,6 hPa #8,0 l/m #5:06 h #1:14 h 279 W/m 5,7 km/h (1 Bft) 97,52 %
© 2019 W. Hausmann